Time,TemperatureF,DewpointF,PressureIn,WindDirection,WindDirectionDegrees,WindSpeedMPH,WindSpeedGustMPH,Humidity,HourlyPrecipIn,Conditions,Clouds,dailyrainin,SoftwareType,DateUTC
2013-08-25 00:00:00,67.5,63.5,30.25,West,273,0.0,0.0,87,0.00,,,0.00,Wunderground v.1.15,2013-08-25 04:00:00,
2013-08-25 01:28:00,66.0,63.6,30.25,West,273,0.0,0.0,92,0.00,,,0.00,Wunderground v.1.15,2013-08-25 05:28:00,
2013-08-25 01:30:00,65.9,63.5,30.25,West,273,0.0,0.0,92,0.00,,,0.00,Wunderground v.1.15,2013-08-25 05:30:00,
2013-08-25 01:35:00,65.8,63.7,30.25,West,273,0.0,0.0,93,0.00,,,0.00,Wunderground v.1.15,2013-08-25 05:35:00,
2013-08-25 01:40:00,65.6,63.5,30.25,West,273,0.0,0.0,93,0.00,,,0.00,Wunderground v.1.15,2013-08-25 05:40:00,
2013-08-25 01:43:00,65.6,63.5,30.25,West,273,0.0,0.0,93,0.00,,,0.00,Wunderground v.1.15,2013-08-25 05:43:00,
2013-08-25 01:44:00,65.6,63.5,30.25,West,273,0.0,0.0,93,0.00,,,0.00,Wunderground v.1.15,2013-08-25 05:44:00,
2013-08-25 01:46:00,65.5,63.4,30.25,West,273,0.0,0.0,93,0.00,,,0.00,Wunderground v.1.15,2013-08-25 05:46:00,
2013-08-25 01:49:00,65.4,63.3,30.25,West,273,0.0,0.0,93,0.00,,,0.00,Wunderground v.1.15,2013-08-25 05:49:00,
2013-08-25 01:51:00,65.4,63.3,30.25,West,273,0.0,0.0,93,0.00,,,0.00,Wunderground v.1.15,2013-08-25 05:51:00,
2013-08-25 01:54:00,65.4,63.3,30.25,West,273,0.0,0.0,93,0.00,,,0.00,Wunderground v.1.15,2013-08-25 05:54:00,
2013-08-25 01:57:00,65.3,63.2,30.25,West,273,0.0,0.0,93,0.00,,,0.00,Wunderground v.1.15,2013-08-25 05:57:00,
2013-08-25 01:59:00,65.3,63.2,30.25,West,273,0.0,0.0,93,0.00,,,0.00,Wunderground v.1.15,2013-08-25 05:59:00,
2013-08-25 02:02:00,65.3,63.2,30.25,West,273,0.0,0.0,93,0.00,,,0.00,Wunderground v.1.15,2013-08-25 06:02:00,
2013-08-25 02:03:00,65.3,63.2,30.25,West,273,0.0,0.0,93,0.00,,,0.00,Wunderground v.1.15,2013-08-25 06:03:00,
2013-08-25 02:04:00,65.3,63.2,30.25,West,273,0.0,0.0,93,0.00,,,0.00,Wunderground v.1.15,2013-08-25 06:04:00,
2013-08-25 02:06:00,65.2,63.1,30.25,West,273,0.0,0.0,93,0.00,,,0.00,Wunderground v.1.15,2013-08-25 06:06:00,
2013-08-25 02:08:00,65.2,63.1,30.25,West,273,0.0,0.0,93,0.00,,,0.00,Wunderground v.1.15,2013-08-25 06:08:00,
2013-08-25 02:14:00,65.3,63.5,30.25,West,273,0.0,0.0,94,0.00,,,0.00,Wunderground v.1.15,2013-08-25 06:14:00,
2013-08-25 02:15:00,65.3,63.5,30.25,West,273,0.0,0.0,94,0.00,,,0.00,Wunderground v.1.15,2013-08-25 06:15:00,
2013-08-25 02:17:00,65.3,63.5,30.25,West,273,0.0,0.0,94,0.00,,,0.00,Wunderground v.1.15,2013-08-25 06:17:00,
2013-08-25 02:21:00,65.4,63.6,30.26,West,273,0.0,0.0,94,0.00,,,0.00,Wunderground v.1.15,2013-08-25 06:21:00,
2013-08-25 02:22:00,65.4,63.6,30.26,West,273,0.0,0.0,94,0.00,,,0.00,Wunderground v.1.15,2013-08-25 06:22:00,
2013-08-25 02:24:00,65.4,63.6,30.26,West,273,0.0,0.0,94,0.00,,,0.00,Wunderground v.1.15,2013-08-25 06:24:00,
2013-08-25 02:26:00,65.4,63.6,30.26,West,273,0.0,0.0,94,0.00,,,0.00,Wunderground v.1.15,2013-08-25 06:26:00,
2013-08-25 02:29:00,65.3,63.5,30.26,West,273,0.0,0.0,94,0.00,,,0.00,Wunderground v.1.15,2013-08-25 06:29:00,
2013-08-25 02:32:00,65.2,63.4,30.26,West,273,0.0,0.0,94,0.00,,,0.00,Wunderground v.1.15,2013-08-25 06:32:00,
2013-08-25 02:34:00,65.1,63.3,30.26,West,273,0.0,0.0,94,0.00,,,0.00,Wunderground v.1.15,2013-08-25 06:34:00,
2013-08-25 02:35:00,65.1,63.3,30.26,West,273,0.0,0.0,94,0.00,,,0.00,Wunderground v.1.15,2013-08-25 06:35:00,
2013-08-25 02:36:00,65.0,63.2,30.26,West,273,0.0,0.0,94,0.00,,,0.00,Wunderground v.1.15,2013-08-25 06:36:00,
2013-08-25 02:37:00,65.0,63.2,30.26,West,273,0.0,0.0,94,0.00,,,0.00,Wunderground v.1.15,2013-08-25 06:37:00,
2013-08-25 02:39:00,64.9,63.1,30.26,West,273,0.0,0.0,94,0.00,,,0.00,Wunderground v.1.15,2013-08-25 06:39:00,
2013-08-25 02:43:00,64.8,63.0,30.26,West,273,0.0,0.0,94,0.00,,,0.00,Wunderground v.1.15,2013-08-25 06:43:00,
2013-08-25 02:44:00,64.8,63.0,30.26,West,273,0.0,0.0,94,0.00,,,0.00,Wunderground v.1.15,2013-08-25 06:44:00,
2013-08-25 02:45:00,64.7,62.9,30.26,West,273,0.0,0.0,94,0.00,,,0.00,Wunderground v.1.15,2013-08-25 06:45:00,
2013-08-25 02:46:00,64.7,62.9,30.26,West,273,0.0,0.0,94,0.00,,,0.00,Wunderground v.1.15,2013-08-25 06:46:00,
2013-08-25 02:49:00,64.5,62.7,30.26,West,273,0.0,0.0,94,0.00,,,0.00,Wunderground v.1.15,2013-08-25 06:49:00,
2013-08-25 02:50:00,64.5,62.7,30.26,West,273,0.0,0.0,94,0.00,,,0.00,Wunderground v.1.15,2013-08-25 06:50:00,
2013-08-25 02:52:00,64.4,62.6,30.26,West,273,0.0,0.0,94,0.00,,,0.00,Wunderground v.1.15,2013-08-25 06:52:00,
2013-08-25 02:53:00,64.3,62.5,30.26,West,273,0.0,0.0,94,0.00,,,0.00,Wunderground v.1.15,2013-08-25 06:53:00,
2013-08-25 02:56:00,64.2,62.4,30.26,West,273,0.0,0.0,94,0.00,,,0.00,Wunderground v.1.15,2013-08-25 06:56:00,
2013-08-25 02:59:00,64.1,62.3,30.26,West,273,0.0,0.0,94,0.00,,,0.00,Wunderground v.1.15,2013-08-25 06:59:00,
2013-08-25 03:02:00,64.1,62.3,30.26,West,273,0.0,0.0,94,0.00,,,0.00,Wunderground v.1.15,2013-08-25 07:02:00,
2013-08-25 03:07:00,64.0,62.2,30.26,West,273,0.0,0.0,94,0.00,,,0.00,Wunderground v.1.15,2013-08-25 07:07:00,
2013-08-25 03:10:00,64.0,62.2,30.26,West,273,0.0,0.0,94,0.00,,,0.00,Wunderground v.1.15,2013-08-25 07:10:00,
2013-08-25 03:11:00,64.0,62.2,30.26,West,273,0.0,0.0,94,0.00,,,0.00,Wunderground v.1.15,2013-08-25 07:11:00,
2013-08-25 03:12:00,64.0,62.2,30.26,West,273,0.0,0.0,94,0.00,,,0.00,Wunderground v.1.15,2013-08-25 07:12:00,
2013-08-25 03:14:00,63.9,62.1,30.26,West,273,0.0,0.0,94,0.00,,,0.00,Wunderground v.1.15,2013-08-25 07:14:00,
2013-08-25 03:15:00,63.9,62.1,30.26,West,273,0.0,0.0,94,0.00,,,0.00,Wunderground v.1.15,2013-08-25 07:15:00,
2013-08-25 03:17:00,63.9,62.1,30.26,West,273,0.0,0.0,94,0.00,,,0.00,Wunderground v.1.15,2013-08-25 07:17:00,
2013-08-25 03:18:00,63.8,62.0,30.26,West,273,0.0,0.0,94,0.00,,,0.00,Wunderground v.1.15,2013-08-25 07:18:00,
2013-08-25 03:22:00,63.7,61.9,30.26,West,273,0.0,0.0,94,0.00,,,0.00,Wunderground v.1.15,2013-08-25 07:22:00,
2013-08-25 03:23:00,63.7,61.9,30.26,West,273,0.0,0.0,94,0.00,,,0.00,Wunderground v.1.15,2013-08-25 07:23:00,
2013-08-25 03:24:00,63.7,61.9,30.26,West,273,0.0,0.0,94,0.00,,,0.00,Wunderground v.1.15,2013-08-25 07:24:00,
2013-08-25 03:25:00,63.7,61.9,30.26,West,273,0.0,0.0,94,0.00,,,0.00,Wunderground v.1.15,2013-08-25 07:25:00,
2013-08-25 03:27:00,63.6,61.8,30.26,West,273,0.0,0.0,94,0.00,,,0.00,Wunderground v.1.15,2013-08-25 07:27:00,
2013-08-25 03:29:00,63.6,61.8,30.26,West,273,0.0,0.0,94,0.00,,,0.00,Wunderground v.1.15,2013-08-25 07:29:00,
2013-08-25 03:30:00,63.6,61.8,30.26,West,273,0.0,0.0,94,0.00,,,0.00,Wunderground v.1.15,2013-08-25 07:30:00,
2013-08-25 03:31:00,63.6,61.8,30.26,West,273,0.0,0.0,94,0.00,,,0.00,Wunderground v.1.15,2013-08-25 07:31:00,
2013-08-25 03:32:00,63.6,61.8,30.26,West,273,0.0,0.0,94,0.00,,,0.00,Wunderground v.1.15,2013-08-25 07:32:00,
2013-08-25 03:33:00,63.6,61.8,30.26,West,273,0.0,0.0,94,0.00,,,0.00,Wunderground v.1.15,2013-08-25 07:33:00,
2013-08-25 03:37:00,63.6,61.8,30.26,West,273,0.0,0.0,94,0.00,,,0.00,Wunderground v.1.15,2013-08-25 07:37:00,
2013-08-25 03:38:00,63.5,61.7,30.26,West,273,0.0,0.0,94,0.00,,,0.00,Wunderground v.1.15,2013-08-25 07:38:00,
2013-08-25 03:39:00,63.5,61.7,30.26,West,273,0.0,0.0,94,0.00,,,0.00,Wunderground v.1.15,2013-08-25 07:39:00,
2013-08-25 03:42:00,63.5,62.0,30.26,West,273,0.0,0.0,95,0.00,,,0.00,Wunderground v.1.15,2013-08-25 07:42:00,
2013-08-25 03:43:00,63.5,62.0,30.26,West,273,0.0,0.0,95,0.00,,,0.00,Wunderground v.1.15,2013-08-25 07:43:00,
2013-08-25 03:44:00,63.6,62.1,30.26,West,273,0.0,0.0,95,0.00,,,0.00,Wunderground v.1.15,2013-08-25 07:44:00,
2013-08-25 03:45:00,63.6,62.1,30.26,West,273,0.0,0.0,95,0.00,,,0.00,Wunderground v.1.15,2013-08-25 07:45:00,
2013-08-25 03:47:00,63.7,62.2,30.26,West,273,0.0,0.0,95,0.00,,,0.00,Wunderground v.1.15,2013-08-25 07:47:00,
2013-08-25 03:50:00,63.7,62.2,30.26,West,273,0.0,0.0,95,0.00,,,0.00,Wunderground v.1.15,2013-08-25 07:50:00,
2013-08-25 03:51:00,63.7,62.2,30.26,West,273,0.0,0.0,95,0.00,,,0.00,Wunderground v.1.15,2013-08-25 07:51:00,
2013-08-25 03:53:00,63.7,62.2,30.26,West,273,0.0,0.0,95,0.00,,,0.00,Wunderground v.1.15,2013-08-25 07:53:00,
2013-08-25 03:55:00,63.7,62.2,30.26,West,273,0.0,0.0,95,0.00,,,0.00,Wunderground v.1.15,2013-08-25 07:55:00,
2013-08-25 03:56:00,63.6,62.1,30.27,West,273,0.0,0.0,95,0.00,,,0.00,Wunderground v.1.15,2013-08-25 07:56:00,
2013-08-25 03:57:00,63.6,62.1,30.27,West,273,0.0,0.0,95,0.00,,,0.00,Wunderground v.1.15,2013-08-25 07:57:00,
2013-08-25 03:59:00,63.6,62.1,30.26,West,273,0.0,0.0,95,0.00,,,0.00,Wunderground v.1.15,2013-08-25 07:59:00,
2013-08-25 04:01:00,63.6,62.1,30.26,West,273,0.0,0.0,95,0.00,,,0.00,Wunderground v.1.15,2013-08-25 08:01:00,
2013-08-25 04:04:00,63.6,62.1,30.26,West,273,0.0,0.0,95,0.00,,,0.00,Wunderground v.1.15,2013-08-25 08:04:00,
2013-08-25 04:05:00,63.6,62.1,30.26,West,273,0.0,0.0,95,0.00,,,0.00,Wunderground v.1.15,2013-08-25 08:05:00,
2013-08-25 04:06:00,63.6,62.1,30.26,West,273,0.0,0.0,95,0.00,,,0.00,Wunderground v.1.15,2013-08-25 08:06:00,
2013-08-25 04:08:00,63.6,62.1,30.26,West,273,0.0,0.0,95,0.00,,,0.00,Wunderground v.1.15,2013-08-25 08:08:00,
2013-08-25 04:11:00,63.5,62.0,30.26,West,273,0.0,0.0,95,0.00,,,0.00,Wunderground v.1.15,2013-08-25 08:11:00,
2013-08-25 04:12:00,63.5,62.0,30.26,West,273,0.0,0.0,95,0.00,,,0.00,Wunderground v.1.15,2013-08-25 08:12:00,
2013-08-25 04:14:00,63.4,61.9,30.26,West,273,0.0,0.0,95,0.00,,,0.00,Wunderground v.1.15,2013-08-25 08:14:00,
2013-08-25 04:16:00,63.4,61.9,30.26,West,273,0.0,0.0,95,0.00,,,0.00,Wunderground v.1.15,2013-08-25 08:16:00,
2013-08-25 04:17:00,63.3,61.8,30.26,West,273,0.0,0.0,95,0.00,,,0.00,Wunderground v.1.15,2013-08-25 08:17:00,
2013-08-25 04:19:00,63.3,61.8,30.26,West,273,0.0,0.0,95,0.00,,,0.00,Wunderground v.1.15,2013-08-25 08:19:00,
2013-08-25 04:20:00,63.3,61.8,30.26,West,273,0.0,0.0,95,0.00,,,0.00,Wunderground v.1.15,2013-08-25 08:20:00,
2013-08-25 04:23:00,63.2,61.7,30.26,West,273,0.0,0.0,95,0.00,,,0.00,Wunderground v.1.15,2013-08-25 08:23:00,
2013-08-25 04:25:00,63.1,61.6,30.26,West,273,0.0,0.0,95,0.00,,,0.00,Wunderground v.1.15,2013-08-25 08:25:00,
2013-08-25 04:26:00,63.1,61.6,30.26,West,273,0.0,0.0,95,0.00,,,0.00,Wunderground v.1.15,2013-08-25 08:26:00,
2013-08-25 04:28:00,63.1,61.6,30.26,West,273,0.0,0.0,95,0.00,,,0.00,Wunderground v.1.15,2013-08-25 08:28:00,
2013-08-25 04:29:00,63.1,61.6,30.26,West,273,0.0,0.0,95,0.00,,,0.00,Wunderground v.1.15,2013-08-25 08:29:00,
2013-08-25 04:34:00,63.1,61.6,30.27,West,273,0.0,0.0,95,0.00,,,0.00,Wunderground v.1.15,2013-08-25 08:34:00,
2013-08-25 04:35:00,63.1,61.6,30.27,West,273,0.0,0.0,95,0.00,,,0.00,Wunderground v.1.15,2013-08-25 08:35:00,
2013-08-25 04:38:00,63.1,61.6,30.27,West,273,0.0,0.0,95,0.00,,,0.00,Wunderground v.1.15,2013-08-25 08:38:00,
2013-08-25 04:40:00,63.0,61.5,30.27,West,273,0.0,0.0,95,0.00,,,0.00,Wunderground v.1.15,2013-08-25 08:40:00,
2013-08-25 04:42:00,63.0,61.5,30.27,West,273,0.0,0.0,95,0.00,,,0.00,Wunderground v.1.15,2013-08-25 08:42:00,
2013-08-25 04:44:00,62.9,61.4,30.27,West,273,0.0,0.0,95,0.00,,,0.00,Wunderground v.1.15,2013-08-25 08:44:00,
2013-08-25 04:45:00,62.9,61.4,30.27,West,273,0.0,0.0,95,0.00,,,0.00,Wunderground v.1.15,2013-08-25 08:45:00,
2013-08-25 04:46:00,62.9,61.4,30.27,West,273,0.0,0.0,95,0.00,,,0.00,Wunderground v.1.15,2013-08-25 08:46:00,
2013-08-25 04:50:00,62.9,61.4,30.27,West,273,0.0,0.0,95,0.00,,,0.00,Wunderground v.1.15,2013-08-25 08:50:00,
2013-08-25 04:52:00,62.9,61.4,30.27,West,273,0.0,0.0,95,0.00,,,0.00,Wunderground v.1.15,2013-08-25 08:52:00,
2013-08-25 04:53:00,62.9,61.4,30.27,West,273,0.0,0.0,95,0.00,,,0.00,Wunderground v.1.15,2013-08-25 08:53:00,
2013-08-25 04:55:00,62.9,61.4,30.28,West,273,0.0,0.0,95,0.00,,,0.00,Wunderground v.1.15,2013-08-25 08:55:00,
2013-08-25 04:56:00,62.9,61.4,30.28,West,273,0.0,0.0,95,0.00,,,0.00,Wunderground v.1.15,2013-08-25 08:56:00,
2013-08-25 04:57:00,62.8,61.3,30.28,West,273,0.0,0.0,95,0.00,,,0.00,Wunderground v.1.15,2013-08-25 08:57:00,
2013-08-25 05:02:00,62.7,61.2,30.28,West,273,0.0,0.0,95,0.00,,,0.00,Wunderground v.1.15,2013-08-25 09:02:00,
2013-08-25 05:03:00,62.7,61.2,30.28,West,273,0.0,0.0,95,0.00,,,0.00,Wunderground v.1.15,2013-08-25 09:03:00,
2013-08-25 05:04:00,62.7,61.2,30.28,West,273,0.0,0.0,95,0.00,,,0.00,Wunderground v.1.15,2013-08-25 09:04:00,
2013-08-25 05:06:00,62.7,61.2,30.28,West,273,0.0,0.0,95,0.00,,,0.00,Wunderground v.1.15,2013-08-25 09:06:00,
2013-08-25 05:07:00,62.7,61.2,30.28,West,273,0.0,0.0,95,0.00,,,0.00,Wunderground v.1.15,2013-08-25 09:07:00,
2013-08-25 05:09:00,62.7,61.2,30.28,West,273,0.0,0.0,95,0.00,,,0.00,Wunderground v.1.15,2013-08-25 09:09:00,
2013-08-25 05:10:00,62.7,61.2,30.28,West,273,0.0,0.0,95,0.00,,,0.00,Wunderground v.1.15,2013-08-25 09:10:00,
2013-08-25 05:13:00,62.6,61.1,30.28,West,273,0.0,0.0,95,0.00,,,0.00,Wunderground v.1.15,2013-08-25 09:13:00,
2013-08-25 05:14:00,62.6,61.1,30.28,West,273,0.0,0.0,95,0.00,,,0.00,Wunderground v.1.15,2013-08-25 09:14:00,
2013-08-25 05:16:00,62.6,61.1,30.28,West,273,0.0,0.0,95,0.00,,,0.00,Wunderground v.1.15,2013-08-25 09:16:00,
2013-08-25 05:17:00,62.6,61.1,30.28,West,273,0.0,0.0,95,0.00,,,0.00,Wunderground v.1.15,2013-08-25 09:17:00,
2013-08-25 05:20:00,62.5,61.0,30.28,West,273,0.0,0.0,95,0.00,,,0.00,Wunderground v.1.15,2013-08-25 09:20:00,
2013-08-25 05:22:00,62.5,61.0,30.28,West,273,0.0,0.0,95,0.00,,,0.00,Wunderground v.1.15,2013-08-25 09:22:00,
2013-08-25 05:23:00,62.5,61.0,30.28,West,273,0.0,0.0,95,0.00,,,0.00,Wunderground v.1.15,2013-08-25 09:23:00,
2013-08-25 05:24:00,62.5,61.0,30.28,West,273,0.0,0.0,95,0.00,,,0.00,Wunderground v.1.15,2013-08-25 09:24:00,
2013-08-25 05:25:00,62.4,60.9,30.28,West,273,0.0,0.0,95,0.00,,,0.00,Wunderground v.1.15,2013-08-25 09:25:00,
2013-08-25 05:29:00,62.5,61.0,30.28,West,273,0.0,0.0,95,0.00,,,0.00,Wunderground v.1.15,2013-08-25 09:29:00,
2013-08-25 05:31:00,62.5,61.0,30.28,West,273,0.0,0.0,95,0.00,,,0.00,Wunderground v.1.15,2013-08-25 09:31:00,
2013-08-25 05:32:00,62.5,61.0,30.28,West,273,0.0,0.0,95,0.00,,,0.00,Wunderground v.1.15,2013-08-25 09:32:00,
2013-08-25 05:34:00,62.5,61.0,30.28,West,273,0.0,0.0,95,0.00,,,0.00,Wunderground v.1.15,2013-08-25 09:34:00,
2013-08-25 05:39:00,62.4,60.9,30.28,West,273,0.0,0.0,95,0.00,,,0.00,Wunderground v.1.15,2013-08-25 09:39:00,
2013-08-25 05:40:00,62.3,60.8,30.29,West,273,0.0,0.0,95,0.00,,,0.00,Wunderground v.1.15,2013-08-25 09:40:00,
2013-08-25 05:41:00,62.3,60.8,30.28,West,273,0.0,0.0,95,0.00,,,0.00,Wunderground v.1.15,2013-08-25 09:41:00,
2013-08-25 05:43:00,62.3,60.8,30.29,West,273,0.0,0.0,95,0.00,,,0.00,Wunderground v.1.15,2013-08-25 09:43:00,
2013-08-25 05:45:00,62.2,60.8,30.29,West,273,0.0,0.0,95,0.00,,,0.00,Wunderground v.1.15,2013-08-25 09:45:00,
2013-08-25 05:47:00,62.2,60.8,30.29,West,273,0.0,0.0,95,0.00,,,0.00,Wunderground v.1.15,2013-08-25 09:47:00,
2013-08-25 05:51:00,62.1,60.7,30.29,West,273,0.0,0.0,95,0.00,,,0.00,Wunderground v.1.15,2013-08-25 09:51:00,
2013-08-25 05:53:00,62.1,60.7,30.29,West,273,0.0,0.0,95,0.00,,,0.00,Wunderground v.1.15,2013-08-25 09:53:00,
2013-08-25 05:54:00,62.0,60.6,30.29,West,273,0.0,0.0,95,0.00,,,0.00,Wunderground v.1.15,2013-08-25 09:54:00,
2013-08-25 05:56:00,62.0,60.6,30.29,West,273,0.0,0.0,95,0.00,,,0.00,Wunderground v.1.15,2013-08-25 09:56:00,
2013-08-25 05:59:00,61.9,60.5,30.29,West,273,0.0,0.0,95,0.00,,,0.00,Wunderground v.1.15,2013-08-25 09:59:00,
2013-08-25 06:02:00,61.8,60.4,30.29,West,273,0.0,0.0,95,0.00,,,0.00,Wunderground v.1.15,2013-08-25 10:02:00,
2013-08-25 06:03:00,61.8,60.4,30.29,West,273,0.0,0.0,95,0.00,,,0.00,Wunderground v.1.15,2013-08-25 10:03:00,
2013-08-25 06:07:00,61.8,60.4,30.29,West,273,0.0,0.0,95,0.00,,,0.00,Wunderground v.1.15,2013-08-25 10:07:00,
2013-08-25 06:08:00,61.8,60.4,30.29,West,273,0.0,0.0,95,0.00,,,0.00,Wunderground v.1.15,2013-08-25 10:08:00,
2013-08-25 06:09:00,61.8,60.4,30.29,West,273,0.0,0.0,95,0.00,,,0.00,Wunderground v.1.15,2013-08-25 10:09:00,
2013-08-25 06:11:00,61.8,60.4,30.29,West,273,0.0,0.0,95,0.00,,,0.00,Wunderground v.1.15,2013-08-25 10:11:00,
2013-08-25 06:14:00,61.9,60.5,30.29,West,273,0.0,0.0,95,0.00,,,0.00,Wunderground v.1.15,2013-08-25 10:14:00,
2013-08-25 06:15:00,61.9,60.5,30.29,West,273,0.0,0.0,95,0.00,,,0.00,Wunderground v.1.15,2013-08-25 10:15:00,
2013-08-25 06:17:00,61.9,60.5,30.30,West,273,0.0,0.0,95,0.00,,,0.00,Wunderground v.1.15,2013-08-25 10:17:00,
2013-08-25 06:19:00,61.9,60.7,30.30,West,273,0.0,0.0,96,0.00,,,0.00,Wunderground v.1.15,2013-08-25 10:19:00,
2013-08-25 06:20:00,62.0,60.8,30.30,West,273,0.0,0.0,96,0.00,,,0.00,Wunderground v.1.15,2013-08-25 10:20:00,
2013-08-25 06:22:00,62.0,60.6,30.30,West,273,0.0,0.0,95,0.00,,,0.00,Wunderground v.1.15,2013-08-25 10:22:00,
2013-08-25 06:25:00,62.0,60.6,30.30,West,273,0.0,0.0,95,0.00,,,0.00,Wunderground v.1.15,2013-08-25 10:25:00,
2013-08-25 06:26:00,62.0,60.6,30.30,West,273,0.0,0.0,95,0.00,,,0.00,Wunderground v.1.15,2013-08-25 10:26:00,
2013-08-25 06:28:00,62.0,60.6,30.30,West,273,0.0,0.0,95,0.00,,,0.00,Wunderground v.1.15,2013-08-25 10:28:00,
2013-08-25 06:29:00,62.0,60.6,30.30,West,273,0.0,0.0,95,0.00,,,0.00,Wunderground v.1.15,2013-08-25 10:29:00,
2013-08-25 06:31:00,62.0,60.8,30.30,West,273,0.0,0.0,96,0.00,,,0.00,Wunderground v.1.15,2013-08-25 10:31:00,
2013-08-25 06:32:00,62.0,60.6,30.30,West,273,0.0,0.0,95,0.00,,,0.00,Wunderground v.1.15,2013-08-25 10:32:00,
2013-08-25 06:33:00,62.0,60.6,30.30,West,273,0.0,0.0,95,0.00,,,0.00,Wunderground v.1.15,2013-08-25 10:33:00,
2013-08-25 06:35:00,62.0,60.6,30.30,West,273,0.0,0.0,95,0.00,,,0.00,Wunderground v.1.15,2013-08-25 10:35:00,
2013-08-25 06:36:00,62.0,60.6,30.30,West,273,0.0,0.0,95,0.00,,,0.00,Wunderground v.1.15,2013-08-25 10:36:00,
2013-08-25 06:38:00,61.9,60.7,30.30,West,273,0.0,0.0,96,0.00,,,0.00,Wunderground v.1.15,2013-08-25 10:38:00,
2013-08-25 06:40:00,61.8,60.6,30.30,West,273,0.0,0.0,96,0.00,,,0.00,Wunderground v.1.15,2013-08-25 10:40:00,
2013-08-25 06:43:00,61.8,60.6,30.30,West,273,0.0,0.0,96,0.00,,,0.00,Wunderground v.1.15,2013-08-25 10:43:00,
2013-08-25 06:44:00,61.8,60.6,30.30,West,273,0.0,0.0,96,0.00,,,0.00,Wunderground v.1.15,2013-08-25 10:44:00,
2013-08-25 06:45:00,61.7,60.5,30.31,West,273,0.0,0.0,96,0.00,,,0.00,Wunderground v.1.15,2013-08-25 10:45:00,
2013-08-25 06:48:00,61.7,60.5,30.31,West,273,0.0,0.0,96,0.00,,,0.00,Wunderground v.1.15,2013-08-25 10:48:00,
2013-08-25 06:51:00,61.6,60.4,30.30,West,273,0.0,0.0,96,0.00,,,0.00,Wunderground v.1.15,2013-08-25 10:51:00,
2013-08-25 06:52:00,61.6,60.4,30.30,West,273,0.0,0.0,96,0.00,,,0.00,Wunderground v.1.15,2013-08-25 10:52:00,
2013-08-25 06:54:00,61.6,60.2,30.31,West,273,0.0,0.0,95,0.00,,,0.00,Wunderground v.1.15,2013-08-25 10:54:00,
2013-08-25 06:55:00,61.5,60.1,30.31,West,273,0.0,0.0,95,0.00,,,0.00,Wunderground v.1.15,2013-08-25 10:55:00,
2013-08-25 06:56:00,61.5,60.1,30.31,West,273,0.0,0.0,95,0.00,,,0.00,Wunderground v.1.15,2013-08-25 10:56:00,
2013-08-25 06:58:00,61.4,60.0,30.31,West,273,0.0,0.0,95,0.00,,,0.00,Wunderground v.1.15,2013-08-25 10:58:00,
2013-08-25 07:00:00,61.4,60.0,30.31,West,273,0.0,0.0,95,0.00,,,0.00,Wunderground v.1.15,2013-08-25 11:00:00,
2013-08-25 07:02:00,61.4,60.0,30.31,West,273,0.0,0.0,95,0.00,,,0.00,Wunderground v.1.15,2013-08-25 11:02:00,
2013-08-25 07:03:00,61.3,59.9,30.31,West,273,0.0,0.0,95,0.00,,,0.00,Wunderground v.1.15,2013-08-25 11:03:00,
2013-08-25 07:05:00,61.3,59.9,30.31,West,273,0.0,0.0,95,0.00,,,0.00,Wunderground v.1.15,2013-08-25 11:05:00,
2013-08-25 07:07:00,61.3,59.9,30.31,West,273,0.0,0.0,95,0.00,,,0.00,Wunderground v.1.15,2013-08-25 11:07:00,
2013-08-25 07:09:00,61.4,60.2,30.31,West,273,0.0,0.0,96,0.00,,,0.00,Wunderground v.1.15,2013-08-25 11:09:00,
2013-08-25 07:12:00,61.5,60.3,30.31,West,273,0.0,0.0,96,0.00,,,0.00,Wunderground v.1.15,2013-08-25 11:12:00,
2013-08-25 07:13:00,61.5,60.3,30.31,West,273,0.0,0.0,96,0.00,,,0.00,Wunderground v.1.15,2013-08-25 11:13:00,
2013-08-25 07:14:00,61.5,60.3,30.31,West,273,0.0,0.0,96,0.00,,,0.00,Wunderground v.1.15,2013-08-25 11:14:00,
2013-08-25 07:15:00,61.5,60.3,30.31,West,273,0.0,0.0,96,0.00,,,0.00,Wunderground v.1.15,2013-08-25 11:15:00,
2013-08-25 07:17:00,61.5,60.3,30.31,West,273,0.0,0.0,96,0.00,,,0.00,Wunderground v.1.15,2013-08-25 11:17:00,
2013-08-25 07:19:00,61.5,60.3,30.32,West,273,0.0,0.0,96,0.00,,,0.00,Wunderground v.1.15,2013-08-25 11:19:00,
2013-08-25 07:21:00,61.5,60.3,30.32,West,273,0.0,0.0,96,0.00,,,0.00,Wunderground v.1.15,2013-08-25 11:21:00,
2013-08-25 07:22:00,61.5,60.3,30.32,West,273,0.0,0.0,96,0.00,,,0.00,Wunderground v.1.15,2013-08-25 11:22:00,
2013-08-25 07:23:00,61.5,60.3,30.32,West,273,0.0,0.0,96,0.00,,,0.00,Wunderground v.1.15,2013-08-25 11:23:00,
2013-08-25 07:26:00,61.4,60.2,30.32,West,273,0.0,0.0,96,0.00,,,0.00,Wunderground v.1.15,2013-08-25 11:26:00,
2013-08-25 07:28:00,61.4,60.2,30.32,West,273,0.0,0.0,96,0.00,,,0.00,Wunderground v.1.15,2013-08-25 11:28:00,
2013-08-25 07:29:00,61.4,60.2,30.32,West,273,0.0,0.0,96,0.00,,,0.00,Wunderground v.1.15,2013-08-25 11:29:00,
2013-08-25 07:30:00,61.4,60.2,30.32,West,273,0.0,0.0,96,0.00,,,0.00,Wunderground v.1.15,2013-08-25 11:30:00,
2013-08-25 07:31:00,61.4,60.2,30.32,West,273,0.0,0.0,96,0.00,,,0.00,Wunderground v.1.15,2013-08-25 11:31:00,
2013-08-25 07:35:00,61.4,60.2,30.32,West,273,0.0,0.0,96,0.00,,,0.00,Wunderground v.1.15,2013-08-25 11:35:00,
2013-08-25 07:36:00,61.4,60.2,30.32,West,273,0.0,0.0,96,0.00,,,0.00,Wunderground v.1.15,2013-08-25 11:36:00,
2013-08-25 07:37:00,61.4,60.2,30.32,West,273,0.0,0.0,96,0.00,,,0.00,Wunderground v.1.15,2013-08-25 11:37:00,
2013-08-25 07:38:00,61.5,60.3,30.32,West,273,0.0,0.0,96,0.00,,,0.00,Wunderground v.1.15,2013-08-25 11:38:00,
2013-08-25 07:42:00,61.4,60.2,30.32,West,273,0.0,0.0,96,0.00,,,0.00,Wunderground v.1.15,2013-08-25 11:42:00,
2013-08-25 07:43:00,61.4,60.2,30.32,West,273,0.0,0.0,96,0.00,,,0.00,Wunderground v.1.15,2013-08-25 11:43:00,
2013-08-25 07:44:00,61.4,60.2,30.32,West,273,0.0,0.0,96,0.00,,,0.00,Wunderground v.1.15,2013-08-25 11:44:00,
2013-08-25 07:46:00,61.4,60.2,30.32,West,273,0.0,0.0,96,0.00,,,0.00,Wunderground v.1.15,2013-08-25 11:46:00,
2013-08-25 07:47:00,61.4,60.2,30.32,West,273,0.0,0.0,96,0.00,,,0.00,Wunderground v.1.15,2013-08-25 11:47:00,
2013-08-25 07:49:00,61.5,60.3,30.32,West,273,0.0,0.0,96,0.00,,,0.00,Wunderground v.1.15,2013-08-25 11:49:00,
2013-08-25 07:50:00,61.5,60.3,30.33,West,273,0.0,0.0,96,0.00,,,0.00,Wunderground v.1.15,2013-08-25 11:50:00,
2013-08-25 07:52:00,61.6,60.4,30.33,West,273,0.0,0.0,96,0.00,,,0.00,Wunderground v.1.15,2013-08-25 11:52:00,
2013-08-25 07:55:00,61.6,60.4,30.33,West,273,0.0,0.0,96,0.00,,,0.00,Wunderground v.1.15,2013-08-25 11:55:00,
2013-08-25 07:56:00,61.6,60.4,30.33,West,273,0.0,0.0,96,0.00,,,0.00,Wunderground v.1.15,2013-08-25 11:56:00,
2013-08-25 07:58:00,61.7,60.5,30.33,West,273,0.0,0.0,96,0.00,,,0.00,Wunderground v.1.15,2013-08-25 11:58:00,
2013-08-25 08:00:00,61.6,60.4,30.33,West,273,0.0,0.0,96,0.00,,,0.00,Wunderground v.1.15,2013-08-25 12:00:00,
2013-08-25 08:01:00,61.6,60.4,30.33,West,273,0.0,0.0,96,0.00,,,0.00,Wunderground v.1.15,2013-08-25 12:01:00,
2013-08-25 08:02:00,61.6,60.4,30.33,West,273,0.0,0.0,96,0.00,,,0.00,Wunderground v.1.15,2013-08-25 12:02:00,
2013-08-25 08:05:00,61.6,60.4,30.33,West,273,0.0,0.0,96,0.00,,,0.00,Wunderground v.1.15,2013-08-25 12:05:00,
2013-08-25 08:07:00,61.6,60.4,30.33,West,273,0.0,0.0,96,0.00,,,0.00,Wunderground v.1.15,2013-08-25 12:07:00,
2013-08-25 08:09:00,61.6,60.4,30.33,West,273,0.0,0.0,96,0.00,,,0.00,Wunderground v.1.15,2013-08-25 12:09:00,
2013-08-25 08:11:00,61.6,60.4,30.33,West,273,0.0,0.0,96,0.00,,,0.00,Wunderground v.1.15,2013-08-25 12:11:00,
2013-08-25 08:12:00,61.7,60.5,30.33,West,273,0.0,0.0,96,0.00,,,0.00,Wunderground v.1.15,2013-08-25 12:12:00,
2013-08-25 08:15:00,61.7,60.5,30.34,West,273,0.0,0.0,96,0.00,,,0.00,Wunderground v.1.15,2013-08-25 12:15:00,
2013-08-25 08:16:00,61.8,60.6,30.33,West,273,0.0,0.0,96,0.00,,,0.00,Wunderground v.1.15,2013-08-25 12:16:00,
2013-08-25 08:18:00,61.8,60.6,30.33,West,273,0.0,0.0,96,0.00,,,0.00,Wunderground v.1.15,2013-08-25 12:18:00,
2013-08-25 08:19:00,61.8,60.6,30.33,West,273,0.0,0.0,96,0.00,,,0.00,Wunderground v.1.15,2013-08-25 12:19:00,
2013-08-25 08:21:00,61.8,60.6,30.33,West,273,0.0,0.0,96,0.00,,,0.00,Wunderground v.1.15,2013-08-25 12:21:00,
2013-08-25 08:22:00,61.8,60.6,30.33,West,273,0.0,0.0,96,0.00,,,0.00,Wunderground v.1.15,2013-08-25 12:22:00,
2013-08-25 08:26:00,61.9,60.7,30.33,West,273,0.0,0.0,96,0.00,,,0.00,Wunderground v.1.15,2013-08-25 12:26:00,
2013-08-25 08:27:00,61.9,60.7,30.33,West,273,0.0,0.0,96,0.00,,,0.00,Wunderground v.1.15,2013-08-25 12:27:00,
2013-08-25 08:29:00,62.0,60.8,30.33,West,273,0.0,0.0,96,0.00,,,0.00,Wunderground v.1.15,2013-08-25 12:29:00,
2013-08-25 08:31:00,62.2,61.0,30.33,West,273,0.0,0.0,96,0.00,,,0.00,Wunderground v.1.15,2013-08-25 12:31:00,
2013-08-25 08:32:00,62.3,61.1,30.34,West,273,0.0,0.0,96,0.00,,,0.00,Wunderground v.1.15,2013-08-25 12:32:00,
2013-08-25 08:33:00,62.4,61.2,30.34,West,273,0.0,0.0,96,0.00,,,0.00,Wunderground v.1.15,2013-08-25 12:33:00,
2013-08-25 08:35:00,62.6,61.4,30.33,West,273,0.0,0.0,96,0.00,,,0.00,Wunderground v.1.15,2013-08-25 12:35:00,
2013-08-25 08:36:00,62.8,61.6,30.34,West,273,0.0,0.0,96,0.00,,,0.00,Wunderground v.1.15,2013-08-25 12:36:00,
2013-08-25 08:38:00,62.9,61.7,30.33,West,273,0.0,0.0,96,0.00,,,0.00,Wunderground v.1.15,2013-08-25 12:38:00,
2013-08-25 08:41:00,63.1,61.9,30.33,West,273,0.0,0.0,96,0.00,,,0.00,Wunderground v.1.15,2013-08-25 12:41:00,
2013-08-25 08:42:00,63.2,62.0,30.33,West,273,0.0,0.0,96,0.00,,,0.00,Wunderground v.1.15,2013-08-25 12:42:00,
2013-08-25 08:43:00,63.3,62.1,30.33,West,273,0.0,0.0,96,0.00,,,0.00,Wunderground v.1.15,2013-08-25 12:43:00,
2013-08-25 08:44:00,63.3,62.1,30.33,West,273,0.0,0.0,96,0.00,,,0.00,Wunderground v.1.15,2013-08-25 12:44:00,
2013-08-25 08:47:00,63.5,62.3,30.34,West,273,0.0,0.0,96,0.00,,,0.00,Wunderground v.1.15,2013-08-25 12:47:00,
2013-08-25 08:48:00,63.5,62.3,30.34,West,273,0.0,0.0,96,0.00,,,0.00,Wunderground v.1.15,2013-08-25 12:48:00,
2013-08-25 08:49:00,63.6,62.4,30.34,West,273,0.0,0.0,96,0.00,,,0.00,Wunderground v.1.15,2013-08-25 12:49:00,
2013-08-25 08:53:00,63.7,62.5,30.34,West,273,0.0,0.0,96,0.00,,,0.00,Wunderground v.1.15,2013-08-25 12:53:00,
2013-08-25 08:57:00,63.7,62.5,30.34,West,273,0.0,0.0,96,0.00,,,0.00,Wunderground v.1.15,2013-08-25 12:57:00,
2013-08-25 08:58:00,63.8,62.6,30.34,West,273,0.0,0.0,96,0.00,,,0.00,Wunderground v.1.15,2013-08-25 12:58:00,
2013-08-25 09:00:00,63.9,62.7,30.34,West,273,0.0,0.0,96,0.00,,,0.00,Wunderground v.1.15,2013-08-25 13:00:00,
2013-08-25 09:01:00,64.0,62.8,30.34,West,273,0.0,0.0,96,0.00,,,0.00,Wunderground v.1.15,2013-08-25 13:01:00,
2013-08-25 09:02:00,64.1,62.9,30.34,West,273,0.0,0.0,96,0.00,,,0.00,Wunderground v.1.15,2013-08-25 13:02:00,
2013-08-25 09:04:00,64.2,63.0,30.34,West,273,0.0,0.0,96,0.00,,,0.00,Wunderground v.1.15,2013-08-25 13:04:00,
2013-08-25 09:07:00,64.4,63.2,30.34,West,273,0.0,0.0,96,0.00,,,0.00,Wunderground v.1.15,2013-08-25 13:07:00,
2013-08-25 09:08:00,64.5,63.6,30.34,West,273,0.0,0.0,97,0.00,,,0.00,Wunderground v.1.15,2013-08-25 13:08:00,
2013-08-25 09:11:00,64.6,63.7,30.34,West,273,0.0,0.0,97,0.00,,,0.00,Wunderground v.1.15,2013-08-25 13:11:00,
2013-08-25 09:12:00,64.7,63.8,30.34,West,273,0.0,0.0,97,0.00,,,0.00,Wunderground v.1.15,2013-08-25 13:12:00,
2013-08-25 09:13:00,64.7,63.8,30.34,West,273,0.0,0.0,97,0.00,,,0.00,Wunderground v.1.15,2013-08-25 13:13:00,
2013-08-25 09:14:00,64.8,63.6,30.34,West,273,0.0,0.0,96,0.00,,,0.00,Wunderground v.1.15,2013-08-25 13:14:00,
2013-08-25 09:19:00,65.1,64.2,30.34,West,273,0.0,0.0,97,0.00,,,0.00,Wunderground v.1.15,2013-08-25 13:19:00,
2013-08-25 09:20:00,65.2,64.3,30.34,West,273,0.0,0.0,97,0.00,,,0.00,Wunderground v.1.15,2013-08-25 13:20:00,
2013-08-25 09:23:00,65.3,64.4,30.34,West,273,0.0,0.0,97,0.00,,,0.00,Wunderground v.1.15,2013-08-25 13:23:00,
2013-08-25 09:24:00,65.4,64.2,30.34,West,273,0.0,0.0,96,0.00,,,0.00,Wunderground v.1.15,2013-08-25 13:24:00,
2013-08-25 09:26:00,65.5,64.3,30.34,West,273,0.0,0.0,96,0.00,,,0.00,Wunderground v.1.15,2013-08-25 13:26:00,
2013-08-25 09:27:00,65.6,64.4,30.34,West,273,0.0,0.0,96,0.00,,,0.00,Wunderground v.1.15,2013-08-25 13:27:00,
2013-08-25 09:30:00,65.8,64.9,30.34,North,355,0.0,1.0,97,0.00,,,0.00,Wunderground v.1.15,2013-08-25 13:30:00,
2013-08-25 09:33:00,65.9,64.7,30.34,North,5,0.0,1.0,96,0.00,,,0.00,Wunderground v.1.15,2013-08-25 13:33:00,
2013-08-25 09:34:00,65.9,64.7,30.34,North,5,0.0,1.0,96,0.00,,,0.00,Wunderground v.1.15,2013-08-25 13:34:00,
2013-08-25 09:36:00,66.2,65.0,30.34,North,5,0.0,1.0,96,0.00,,,0.00,Wunderground v.1.15,2013-08-25 13:36:00,
2013-08-25 09:39:00,66.4,65.2,30.34,North,5,0.0,0.0,96,0.00,,,0.00,Wunderground v.1.15,2013-08-25 13:39:00,
2013-08-25 09:42:00,66.6,65.4,30.34,North,5,0.0,0.0,96,0.00,,,0.00,Wunderground v.1.15,2013-08-25 13:42:00,
2013-08-25 09:45:00,66.8,65.3,30.35,North,5,0.0,0.0,95,0.00,,,0.00,Wunderground v.1.15,2013-08-25 13:45:00,
2013-08-25 09:46:00,66.9,65.4,30.34,North,5,0.0,0.0,95,0.00,,,0.00,Wunderground v.1.15,2013-08-25 13:46:00,
2013-08-25 09:47:00,66.9,65.4,30.35,North,5,0.0,0.0,95,0.00,,,0.00,Wunderground v.1.15,2013-08-25 13:47:00,
2013-08-25 09:49:00,67.0,65.2,30.35,North,5,0.0,0.0,94,0.00,,,0.00,Wunderground v.1.15,2013-08-25 13:49:00,
2013-08-25 09:50:00,67.0,65.2,30.34,North,5,0.0,0.0,94,0.00,,,0.00,Wunderground v.1.15,2013-08-25 13:50:00,
2013-08-25 09:51:00,67.1,65.3,30.34,North,5,0.0,0.0,94,0.00,,,0.00,Wunderground v.1.15,2013-08-25 13:51:00,
2013-08-25 09:53:00,67.2,65.4,30.34,North,5,0.0,0.0,94,0.00,,,0.00,Wunderground v.1.15,2013-08-25 13:53:00,
2013-08-25 09:54:00,67.3,65.5,30.34,North,5,0.0,0.0,94,0.00,,,0.00,Wunderground v.1.15,2013-08-25 13:54:00,
2013-08-25 09:58:00,67.8,65.4,30.34,North,5,0.0,0.0,92,0.00,,,0.00,Wunderground v.1.15,2013-08-25 13:58:00,
2013-08-25 10:00:00,68.0,65.6,30.34,North,5,0.0,0.0,92,0.00,,,0.00,Wunderground v.1.15,2013-08-25 14:00:00,
2013-08-25 10:01:00,68.2,65.8,30.34,North,5,0.0,0.0,92,0.00,,,0.00,Wunderground v.1.15,2013-08-25 14:01:00,
2013-08-25 10:03:00,68.6,66.2,30.34,SW,223,0.0,0.0,92,0.00,,,0.00,Wunderground v.1.15,2013-08-25 14:03:00,
2013-08-25 10:04:00,68.7,66.3,30.34,SW,223,0.0,0.0,92,0.00,,,0.00,Wunderground v.1.15,2013-08-25 14:04:00,
2013-08-25 10:09:00,69.2,66.1,30.35,SW,223,0.0,0.0,90,0.00,,,0.00,Wunderground v.1.15,2013-08-25 14:09:00,
2013-08-25 10:10:00,69.3,66.2,30.35,SW,223,0.0,0.0,90,0.00,,,0.00,Wunderground v.1.15,2013-08-25 14:10:00,
2013-08-25 10:11:00,69.4,66.0,30.35,SW,223,0.0,0.0,89,0.00,,,0.00,Wunderground v.1.15,2013-08-25 14:11:00,
2013-08-25 10:12:00,69.5,66.1,30.35,SW,223,0.0,2.0,89,0.00,,,0.00,Wunderground v.1.15,2013-08-25 14:12:00,
2013-08-25 10:15:00,70.1,66.4,30.34,SW,222,0.0,2.0,88,0.00,,,0.00,Wunderground v.1.15,2013-08-25 14:15:00,
2013-08-25 10:16:00,70.2,66.5,30.34,SW,222,0.0,2.0,88,0.00,,,0.00,Wunderground v.1.15,2013-08-25 14:16:00,
2013-08-25 10:17:00,70.3,66.6,30.34,SW,222,0.0,0.0,88,0.00,,,0.00,Wunderground v.1.15,2013-08-25 14:17:00,
2013-08-25 10:18:00,70.5,66.8,30.34,SW,222,0.0,0.0,88,0.00,,,0.00,Wunderground v.1.15,2013-08-25 14:18:00,
2013-08-25 10:21:00,70.9,66.5,30.34,SW,222,0.0,1.0,86,0.00,,,0.00,Wunderground v.1.15,2013-08-25 14:21:00,
2013-08-25 10:22:00,71.1,66.7,30.34,SW,222,0.0,1.0,86,0.00,,,0.00,Wunderground v.1.15,2013-08-25 14:22:00,
2013-08-25 10:24:00,71.3,66.9,30.34,SW,222,0.0,1.0,86,0.00,,,0.00,Wunderground v.1.15,2013-08-25 14:24:00,
2013-08-25 10:28:00,71.9,67.1,30.34,SW,221,0.0,0.0,85,0.00,,,0.00,Wunderground v.1.15,2013-08-25 14:28:00,
2013-08-25 10:30:00,72.2,67.4,30.34,SW,221,0.0,2.0,85,0.00,,,0.00,Wunderground v.1.15,2013-08-25 14:30:00,
2013-08-25 10:31:00,72.3,67.2,30.34,SW,221,0.0,2.0,84,0.00,,,0.00,Wunderground v.1.15,2013-08-25 14:31:00,
2013-08-25 10:33:00,72.5,67.4,30.34,SW,221,0.0,2.0,84,0.00,,,0.00,Wunderground v.1.15,2013-08-25 14:33:00,
2013-08-25 10:35:00,72.8,68.0,30.34,SW,221,0.0,2.0,85,0.00,,,0.00,Wunderground v.1.15,2013-08-25 14:35:00,
2013-08-25 10:36:00,73.0,67.9,30.34,SW,221,0.0,2.0,84,0.00,,,0.00,Wunderground v.1.15,2013-08-25 14:36:00,
2013-08-25 10:38:00,73.3,67.8,30.34,ENE,65,0.0,1.0,83,0.00,,,0.00,Wunderground v.1.15,2013-08-25 14:38:00,
2013-08-25 10:39:00,73.3,68.2,30.34,ENE,65,0.0,1.0,84,0.00,,,0.00,Wunderground v.1.15,2013-08-25 14:39:00,
2013-08-25 10:41:00,73.6,68.1,30.35,SSE,163,0.0,1.0,83,0.00,,,0.00,Wunderground v.1.15,2013-08-25 14:41:00,
2013-08-25 10:45:00,74.2,68.3,30.35,South,188,0.0,1.0,82,0.00,,,0.00,Wunderground v.1.15,2013-08-25 14:45:00,
2013-08-25 10:47:00,74.4,68.5,30.35,South,188,0.0,0.0,82,0.00,,,0.00,Wunderground v.1.15,2013-08-25 14:47:00,
2013-08-25 10:48:00,74.6,68.7,30.35,South,188,0.0,0.0,82,0.00,,,0.00,Wunderground v.1.15,2013-08-25 14:48:00,
2013-08-25 10:50:00,74.9,69.0,30.35,SSW,203,0.0,5.0,82,0.00,,,0.00,Wunderground v.1.15,2013-08-25 14:50:00,
2013-08-25 10:53:00,75.5,68.9,30.35,SSW,200,1.0,5.0,80,0.00,,,0.00,Wunderground v.1.15,2013-08-25 14:53:00,
2013-08-25 10:55:00,75.9,68.9,30.34,South,175,1.0,5.0,79,0.00,,,0.00,Wunderground v.1.15,2013-08-25 14:55:00,
2013-08-25 10:57:00,76.3,69.7,30.35,South,175,1.0,1.0,80,0.00,,,0.00,Wunderground v.1.15,2013-08-25 14:57:00,
2013-08-25 10:58:00,76.5,70.2,30.34,South,175,1.0,1.0,81,0.00,,,0.00,Wunderground v.1.15,2013-08-25 14:58:00,
2013-08-25 10:59:00,76.6,70.0,30.34,South,175,1.0,1.0,80,0.00,,,0.00,Wunderground v.1.15,2013-08-25 14:59:00,
2013-08-25 11:01:00,76.8,69.0,30.34,SSW,211,1.0,3.0,77,0.00,,,0.00,Wunderground v.1.15,2013-08-25 15:01:00,
2013-08-25 11:03:00,77.0,70.4,30.34,SW,233,1.0,3.0,80,0.00,,,0.00,Wunderground v.1.15,2013-08-25 15:03:00,
2013-08-25 11:04:00,77.1,70.5,30.34,SW,224,1.0,4.0,80,0.00,,,0.00,Wunderground v.1.15,2013-08-25 15:04:00,
2013-08-25 11:06:00,77.2,69.8,30.34,West,281,1.0,4.0,78,0.00,,,0.00,Wunderground v.1.15,2013-08-25 15:06:00,
2013-08-25 11:07:00,77.4,70.0,30.34,SSW,194,1.0,4.0,78,0.00,,,0.00,Wunderground v.1.15,2013-08-25 15:07:00,
2013-08-25 11:08:00,77.5,69.7,30.34,SSW,196,1.0,4.0,77,0.00,,,0.00,Wunderground v.1.15,2013-08-25 15:08:00,
2013-08-25 11:11:00,77.7,70.3,30.34,West,278,1.0,4.0,78,0.00,,,0.00,Wunderground v.1.15,2013-08-25 15:11:00,
2013-08-25 11:12:00,77.8,70.4,30.34,SSW,201,1.0,4.0,78,0.00,,,0.00,Wunderground v.1.15,2013-08-25 15:12:00,
2013-08-25 11:15:00,78.0,69.4,30.34,South,189,1.0,4.0,75,0.00,,,0.00,Wunderground v.1.15,2013-08-25 15:15:00,
2013-08-25 11:18:00,78.1,69.9,30.34,WSW,252,1.0,1.0,76,0.00,,,0.00,Wunderground v.1.15,2013-08-25 15:18:00,
2013-08-25 11:19:00,78.1,70.3,30.34,SSW,209,1.0,5.0,77,0.00,,,0.00,Wunderground v.1.15,2013-08-25 15:19:00,
2013-08-25 11:22:00,78.3,69.3,30.34,South,191,2.0,5.0,74,0.00,,,0.00,Wunderground v.1.15,2013-08-25 15:22:00,
2013-08-25 11:23:00,78.3,69.3,30.34,South,173,2.0,5.0,74,0.00,,,0.00,Wunderground v.1.15,2013-08-25 15:23:00,
2013-08-25 11:24:00,78.4,69.8,30.34,SSW,200,2.0,5.0,75,0.00,,,0.00,Wunderground v.1.15,2013-08-25 15:24:00,
2013-08-25 11:25:00,78.4,69.0,30.34,SE,136,2.0,5.0,73,0.00,,,0.00,Wunderground v.1.15,2013-08-25 15:25:00,
2013-08-25 11:29:00,78.6,70.0,30.33,SSW,198,2.0,2.0,75,0.00,,,0.00,Wunderground v.1.15,2013-08-25 15:29:00,
2013-08-25 11:30:00,78.7,70.5,30.33,NW,321,2.0,2.0,76,0.00,,,0.00,Wunderground v.1.15,2013-08-25 15:30:00,
2013-08-25 11:31:00,78.8,71.0,30.33,NW,319,2.0,2.0,77,0.00,,,0.00,Wunderground v.1.15,2013-08-25 15:31:00,
2013-08-25 11:34:00,79.0,70.4,30.33,NNE,15,2.0,2.0,75,0.00,,,0.00,Wunderground v.1.15,2013-08-25 15:34:00,
2013-08-25 11:36:00,79.2,71.0,30.34,West,270,1.0,2.0,76,0.00,,,0.00,Wunderground v.1.15,2013-08-25 15:36:00,
2013-08-25 11:37:00,79.2,71.0,30.34,South,170,1.0,1.0,76,0.00,,,0.00,Wunderground v.1.15,2013-08-25 15:37:00,
2013-08-25 11:38:00,79.3,69.9,30.34,West,278,1.0,1.0,73,0.00,,,0.00,Wunderground v.1.15,2013-08-25 15:38:00,
2013-08-25 11:40:00,79.4,70.4,30.34,WNW,296,1.0,1.0,74,0.00,,,0.00,Wunderground v.1.15,2013-08-25 15:40:00,
2013-08-25 11:43:00,79.6,70.2,30.33,WSW,250,1.0,2.0,73,0.00,,,0.00,Wunderground v.1.15,2013-08-25 15:43:00,
2013-08-25 11:44:00,79.6,70.2,30.33,North,350,1.0,2.0,73,0.00,,,0.00,Wunderground v.1.15,2013-08-25 15:44:00,
2013-08-25 11:45:00,79.7,70.7,30.33,SSW,207,1.0,3.0,74,0.00,,,0.00,Wunderground v.1.15,2013-08-25 15:45:00,
2013-08-25 11:50:00,80.2,71.2,30.33,SSW,206,1.0,2.0,74,0.00,,,0.00,Wunderground v.1.15,2013-08-25 15:50:00,
2013-08-25 11:51:00,80.4,70.9,30.33,WSW,252,1.0,2.0,73,0.00,,,0.00,Wunderground v.1.15,2013-08-25 15:51:00,
2013-08-25 11:52:00,80.4,70.9,30.33,WSW,250,1.0,2.0,73,0.00,,,0.00,Wunderground v.1.15,2013-08-25 15:52:00,
2013-08-25 11:54:00,80.6,71.1,30.33,West,269,1.0,2.0,73,0.00,,,0.00,Wunderground v.1.15,2013-08-25 15:54:00,
2013-08-25 11:56:00,80.7,71.2,30.33,NE,35,1.0,2.0,73,0.00,,,0.00,Wunderground v.1.15,2013-08-25 15:56:00,
2013-08-25 11:58:00,80.7,71.2,30.33,SSW,202,1.0,1.0,73,0.00,,,0.00,Wunderground v.1.15,2013-08-25 15:58:00,
2013-08-25 11:59:00,80.8,71.3,30.33,WSW,244,1.0,1.0,73,0.00,,,0.00,Wunderground v.1.15,2013-08-25 15:59:00,
2013-08-25 12:00:00,80.9,71.4,30.33,WNW,300,1.0,1.0,73,0.00,,,0.00,Wunderground v.1.15,2013-08-25 16:00:00,
2013-08-25 12:04:00,81.2,71.3,30.32,WNW,300,0.0,1.0,72,0.00,,,0.00,Wunderground v.1.15,2013-08-25 16:04:00,
2013-08-25 12:05:00,81.2,71.3,30.32,WNW,300,0.0,1.0,72,0.00,,,0.00,Wunderground v.1.15,2013-08-25 16:05:00,
2013-08-25 12:07:00,81.4,71.5,30.32,SW,223,0.0,2.0,72,0.00,,,0.00,Wunderground v.1.15,2013-08-25 16:07:00,
2013-08-25 12:12:00,81.9,71.6,30.32,South,190,1.0,3.0,71,0.00,,,0.00,Wunderground v.1.15,2013-08-25 16:12:00,
2013-08-25 12:13:00,81.9,71.2,30.32,South,178,1.0,3.0,70,0.00,,,0.00,Wunderground v.1.15,2013-08-25 16:13:00,
2013-08-25 12:14:00,81.9,71.2,30.32,SSW,196,1.0,3.0,70,0.00,,,0.00,Wunderground v.1.15,2013-08-25 16:14:00,
2013-08-25 12:15:00,81.9,71.2,30.32,SSW,196,1.0,3.0,70,0.00,,,0.00,Wunderground v.1.15,2013-08-25 16:15:00,
2013-08-25 12:19:00,82.0,72.1,30.32,NE,43,1.0,1.0,72,0.00,,,0.00,Wunderground v.1.15,2013-08-25 16:19:00,
2013-08-25 12:22:00,82.3,71.5,30.32,ESE,107,1.0,2.0,70,0.00,,,0.00,Wunderground v.1.15,2013-08-25 16:22:00,
2013-08-25 12:23:00,82.4,72.0,30.32,ESE,111,1.0,2.0,71,0.00,,,0.00,Wunderground v.1.15,2013-08-25 16:23:00,
2013-08-25 12:25:00,82.4,72.0,30.32,South,184,1.0,2.0,71,0.00,,,0.00,Wunderground v.1.15,2013-08-25 16:25:00,
2013-08-25 12:28:00,82.2,71.9,30.32,WSW,254,1.0,1.0,71,0.00,,,0.00,Wunderground v.1.15,2013-08-25 16:28:00,
2013-08-25 12:29:00,82.1,71.3,30.32,West,260,1.0,1.0,70,0.00,,,0.00,Wunderground v.1.15,2013-08-25 16:29:00,
2013-08-25 12:30:00,82.1,72.2,30.32,West,260,0.0,1.0,72,0.00,,,0.00,Wunderground v.1.15,2013-08-25 16:30:00,
2013-08-25 12:33:00,82.0,72.1,30.32,SW,224,0.0,2.0,72,0.00,,,0.00,Wunderground v.1.15,2013-08-25 16:33:00,
2013-08-25 12:37:00,82.0,71.2,30.31,SSW,196,1.0,3.0,70,0.00,,,0.00,Wunderground v.1.15,2013-08-25 16:37:00,
2013-08-25 12:38:00,81.9,71.6,30.31,SSW,192,1.0,3.0,71,0.00,,,0.00,Wunderground v.1.15,2013-08-25 16:38:00,
2013-08-25 12:41:00,82.1,71.3,30.31,SSW,201,1.0,5.0,70,0.00,,,0.00,Wunderground v.1.15,2013-08-25 16:41:00,
2013-08-25 12:42:00,82.2,71.0,30.31,SSW,200,1.0,5.0,69,0.00,,,0.00,Wunderground v.1.15,2013-08-25 16:42:00,
2013-08-25 12:43:00,82.4,71.2,30.31,SSW,200,1.0,5.0,69,0.00,,,0.00,Wunderground v.1.15,2013-08-25 16:43:00,
2013-08-25 12:44:00,82.5,71.3,30.31,SSW,200,1.0,5.0,69,0.00,,,0.00,Wunderground v.1.15,2013-08-25 16:44:00,
2013-08-25 12:48:00,83.2,72.8,30.31,West,261,1.0,1.0,71,0.00,,,0.00,Wunderground v.1.15,2013-08-25 16:48:00,
2013-08-25 12:50:00,83.4,72.2,30.31,SW,235,0.0,3.0,69,0.00,,,0.00,Wunderground v.1.15,2013-08-25 16:50:00,
2013-08-25 12:54:00,83.9,72.2,30.31,North,9,0.0,3.0,68,0.00,,,0.00,Wunderground v.1.15,2013-08-25 16:54:00,
2013-08-25 12:55:00,83.9,72.6,30.31,North,5,0.0,3.0,69,0.00,,,0.00,Wunderground v.1.15,2013-08-25 16:55:00,
2013-08-25 12:57:00,84.1,73.3,30.31,North,5,0.0,0.0,70,0.00,,,0.00,Wunderground v.1.15,2013-08-25 16:57:00,
2013-08-25 12:58:00,84.1,73.3,30.31,North,5,0.0,0.0,70,0.00,,,0.00,Wunderground v.1.15,2013-08-25 16:58:00,
2013-08-25 12:59:00,84.0,73.2,30.31,North,355,0.0,1.0,70,0.00,,,0.00,Wunderground v.1.15,2013-08-25 16:59:00,
2013-08-25 13:00:00,83.8,72.5,30.31,North,355,0.0,1.0,69,0.00,,,0.00,Wunderground v.1.15,2013-08-25 17:00:00,
2013-08-25 13:02:00,83.6,72.3,30.31,North,355,0.0,1.0,69,0.00,,,0.00,Wunderground v.1.15,2013-08-25 17:02:00,
2013-08-25 13:03:00,83.5,72.3,30.31,NE,34,0.0,1.0,69,0.00,,,0.00,Wunderground v.1.15,2013-08-25 17:03:00,
2013-08-25 13:04:00,72.0,68.9,30.27,NE,52,0.0,0.0,90,0.00,,,0.00,Wunderground v.1.15,2013-08-25 17:04:00,
2013-08-25 13:05:00,83.2,72.4,30.30,WNW,297,0.0,1.0,70,0.00,,,0.00,Wunderground v.1.15,2013-08-25 17:05:00,
2013-08-25 13:06:00,72.0,68.9,30.27,NE,52,0.0,0.0,90,0.00,,,0.00,Wunderground v.1.15,2013-08-25 17:06:00,
2013-08-25 13:07:00,72.0,68.9,30.27,NE,52,0.0,0.0,90,0.00,,,0.00,Wunderground v.1.15,2013-08-25 17:07:00,
2013-08-25 13:08:00,83.1,71.9,30.31,NNW,338,0.0,1.0,69,0.00,,,0.00,Wunderground v.1.15,2013-08-25 17:08:00,
2013-08-25 13:09:00,83.1,72.3,30.30,SSW,198,0.0,1.0,70,0.00,,,0.00,Wunderground v.1.15,2013-08-25 17:09:00,
2013-08-25 13:10:00,71.9,68.8,30.28,NE,52,0.0,0.0,90,0.00,,,0.00,Wunderground v.1.15,2013-08-25 17:10:00,
2013-08-25 13:11:00,83.5,73.5,30.30,SSW,197,0.0,1.0,72,0.00,,,0.00,Wunderground v.1.15,2013-08-25 17:11:00,
2013-08-25 13:12:00,83.8,72.5,30.30,SSW,198,0.0,1.0,69,0.00,,,0.00,Wunderground v.1.15,2013-08-25 17:12:00,
2013-08-25 13:13:00,71.8,68.7,30.28,NE,52,0.0,0.0,90,0.00,,,0.00,Wunderground v.1.15,2013-08-25 17:13:00,
2013-08-25 13:14:00,71.8,68.7,30.28,NE,52,0.0,0.0,90,0.00,,,0.00,Wunderground v.1.15,2013-08-25 17:14:00,
2013-08-25 13:15:00,71.8,68.7,30.28,NE,52,0.0,0.0,90,0.00,,,0.00,Wunderground v.1.15,2013-08-25 17:15:00,
2013-08-25 13:16:00,84.1,72.4,30.30,West,273,1.0,1.0,68,0.00,,,0.00,Wunderground v.1.15,2013-08-25 17:16:00,
2013-08-25 13:17:00,84.2,72.9,30.30,West,273,1.0,1.0,69,0.00,,,0.00,Wunderground v.1.15,2013-08-25 17:17:00,
2013-08-25 13:18:00,71.7,68.6,30.27,NE,52,0.0,0.0,90,0.00,,,0.00,Wunderground v.1.15,2013-08-25 17:18:00,
2013-08-25 13:19:00,84.3,72.6,30.30,South,184,1.0,4.0,68,0.00,,,0.00,Wunderground v.1.15,2013-08-25 17:19:00,
2013-08-25 13:20:00,71.7,68.6,30.27,NE,52,0.0,0.0,90,0.00,,,0.00,Wunderground v.1.15,2013-08-25 17:20:00,
2013-08-25 13:21:00,84.3,71.7,30.30,SSW,203,2.0,4.0,66,0.00,,,0.00,Wunderground v.1.15,2013-08-25 17:21:00,
2013-08-25 13:22:00,71.6,68.5,30.28,NE,52,0.0,0.0,90,0.00,,,0.00,Wunderground v.1.15,2013-08-25 17:22:00,
2013-08-25 13:23:00,84.4,71.8,30.30,SW,230,2.0,4.0,66,0.00,,,0.00,Wunderground v.1.15,2013-08-25 17:23:00,
2013-08-25 13:24:00,71.6,68.5,30.28,NE,52,0.0,0.0,90,0.00,,,0.00,Wunderground v.1.15,2013-08-25 17:24:00,
2013-08-25 13:25:00,84.5,71.9,30.30,SW,228,2.0,4.0,66,0.00,,,0.00,Wunderground v.1.15,2013-08-25 17:25:00,
2013-08-25 13:26:00,84.7,72.1,30.30,SW,228,2.0,4.0,66,0.00,,,0.00,Wunderground v.1.15,2013-08-25 17:26:00,
2013-08-25 13:27:00,71.6,68.8,30.28,NE,52,0.0,0.0,91,0.00,,,0.00,Wunderground v.1.15,2013-08-25 17:27:00,
2013-08-25 13:28:00,71.5,68.7,30.27,NE,52,0.0,0.0,91,0.00,,,0.00,Wunderground v.1.15,2013-08-25 17:28:00,
2013-08-25 13:29:00,85.2,73.0,30.30,SW,227,1.0,2.0,67,0.00,,,0.00,Wunderground v.1.15,2013-08-25 17:29:00,
2013-08-25 13:30:00,85.3,73.1,30.30,SW,227,1.0,2.0,67,0.00,,,0.00,Wunderground v.1.15,2013-08-25 17:30:00,
2013-08-25 13:31:00,85.5,73.7,30.30,WSW,238,1.0,2.0,68,0.00,,,0.00,Wunderground v.1.15,2013-08-25 17:31:00,
2013-08-25 13:32:00,71.5,68.7,30.28,NE,52,0.0,0.0,91,0.00,,,0.00,Wunderground v.1.15,2013-08-25 17:32:00,
2013-08-25 13:33:00,71.4,68.6,30.27,NE,52,0.0,0.0,91,0.00,,,0.00,Wunderground v.1.15,2013-08-25 17:33:00,
2013-08-25 13:34:00,85.8,73.1,30.30,SSW,211,1.0,4.0,66,0.00,,,0.00,Wunderground v.1.15,2013-08-25 17:34:00,
2013-08-25 13:35:00,85.8,73.6,30.30,SSW,211,1.0,4.0,67,0.00,,,0.00,Wunderground v.1.15,2013-08-25 17:35:00,
2013-08-25 13:36:00,85.9,74.1,30.30,SSW,211,1.0,4.0,68,0.00,,,0.00,Wunderground v.1.15,2013-08-25 17:36:00,
2013-08-25 13:37:00,85.9,74.1,30.30,SSW,211,1.0,1.0,68,0.00,,,0.00,Wunderground v.1.15,2013-08-25 17:37:00,
2013-08-25 13:38:00,71.3,68.5,30.27,NE,52,0.0,0.0,91,0.00,,,0.00,Wunderground v.1.15,2013-08-25 17:38:00,
2013-08-25 13:39:00,86.2,72.6,30.30,SSW,208,1.0,2.0,64,0.00,,,0.00,Wunderground v.1.15,2013-08-25 17:39:00,
2013-08-25 13:40:00,71.2,68.4,30.28,NE,52,0.0,0.0,91,0.00,,,0.00,Wunderground v.1.15,2013-08-25 17:40:00,
2013-08-25 13:41:00,71.2,68.4,30.28,NE,52,0.0,0.0,91,0.00,,,0.00,Wunderground v.1.15,2013-08-25 17:41:00,
2013-08-25 13:42:00,86.5,72.9,30.29,SW,219,1.0,2.0,64,0.00,,,0.00,Wunderground v.1.15,2013-08-25 17:42:00,
2013-08-25 13:43:00,86.7,73.5,30.29,SSW,196,1.0,2.0,65,0.00,,,0.00,Wunderground v.1.15,2013-08-25 17:43:00,
2013-08-25 13:44:00,86.8,72.2,30.29,West,274,1.0,2.0,62,0.00,,,0.00,Wunderground v.1.15,2013-08-25 17:44:00,
2013-08-25 13:45:00,71.1,68.3,30.28,NE,52,0.0,0.0,91,0.00,,,0.00,Wunderground v.1.15,2013-08-25 17:45:00,
2013-08-25 13:46:00,71.1,68.3,30.28,NE,52,0.0,0.0,91,0.00,,,0.00,Wunderground v.1.15,2013-08-25 17:46:00,
2013-08-25 13:47:00,86.8,72.2,30.29,SSW,194,1.0,4.0,62,0.00,,,0.00,Wunderground v.1.15,2013-08-25 17:47:00,
2013-08-25 13:48:00,86.9,71.8,30.29,SW,217,1.0,4.0,61,0.00,,,0.00,Wunderground v.1.15,2013-08-25 17:48:00,
2013-08-25 13:49:00,71.0,68.2,30.28,NE,52,0.0,0.0,91,0.00,,,0.00,Wunderground v.1.15,2013-08-25 17:49:00,
2013-08-25 13:50:00,71.0,68.2,30.27,NE,52,0.0,0.0,91,0.00,,,0.00,Wunderground v.1.15,2013-08-25 17:50:00,
2013-08-25 13:51:00,70.9,68.5,30.27,NE,52,0.0,0.0,92,0.00,,,0.00,Wunderground v.1.15,2013-08-25 17:51:00,
2013-08-25 13:52:00,70.9,68.5,30.27,NE,53,0.0,0.0,92,0.00,,,0.00,Wunderground v.1.15,2013-08-25 17:52:00,
2013-08-25 13:53:00,87.0,72.9,30.29,SW,217,1.0,4.0,63,0.00,,,0.00,Wunderground v.1.15,2013-08-25 17:53:00,
2013-08-25 13:54:00,87.1,72.5,30.29,West,267,1.0,4.0,62,0.00,,,0.00,Wunderground v.1.15,2013-08-25 17:54:00,
2013-08-25 13:55:00,86.9,73.3,30.29,West,263,1.0,4.0,64,0.00,,,0.00,Wunderground v.1.15,2013-08-25 17:55:00,
2013-08-25 13:56:00,70.8,68.4,30.28,NE,52,0.0,0.0,92,0.00,,,0.00,Wunderground v.1.15,2013-08-25 17:56:00,
2013-08-25 13:57:00,86.9,72.8,30.29,SW,221,1.0,1.0,63,0.00,,,0.00,Wunderground v.1.15,2013-08-25 17:57:00,
2013-08-25 13:58:00,70.8,68.4,30.27,NE,52,0.0,0.0,92,0.00,,,0.00,Wunderground v.1.15,2013-08-25 17:58:00,
2013-08-25 13:59:00,70.8,68.4,30.27,NE,52,0.0,0.0,92,0.00,,,0.00,Wunderground v.1.15,2013-08-25 17:59:00,
2013-08-25 14:00:00,70.8,68.4,30.27,NE,52,0.0,0.0,92,0.00,,,0.00,Wunderground v.1.15,2013-08-25 18:00:00,
2013-08-25 14:01:00,86.6,72.5,30.29,SW,221,0.0,1.0,63,0.00,,,0.00,Wunderground v.1.15,2013-08-25 18:01:00,
2013-08-25 14:02:00,86.6,73.4,30.29,SW,221,0.0,2.0,65,0.00,,,0.00,Wunderground v.1.15,2013-08-25 18:02:00,
2013-08-25 14:03:00,86.6,73.4,30.29,SW,221,0.0,2.0,65,0.00,,,0.00,Wunderground v.1.15,2013-08-25 18:03:00,
2013-08-25 14:04:00,70.7,68.3,30.27,NE,52,0.0,0.0,92,0.00,,,0.00,Wunderground v.1.15,2013-08-25 18:04:00,
2013-08-25 14:05:00,86.6,71.5,30.29,SW,221,0.0,2.0,61,0.00,,,0.00,Wunderground v.1.15,2013-08-25 18:05:00,
2013-08-25 14:06:00,70.7,68.3,30.27,NE,52,0.0,0.0,92,0.00,,,0.00,Wunderground v.1.15,2013-08-25 18:06:00,
2013-08-25 14:07:00,70.7,68.3,30.27,NE,52,0.0,0.0,92,0.00,,,0.00,Wunderground v.1.15,2013-08-25 18:07:00,
2013-08-25 14:08:00,86.3,71.3,30.29,SW,221,0.0,0.0,61,0.00,,,0.00,Wunderground v.1.15,2013-08-25 18:08:00,
2013-08-25 14:09:00,86.2,71.2,30.29,SW,220,0.0,0.0,61,0.00,,,0.00,Wunderground v.1.15,2013-08-25 18:09:00,
2013-08-25 14:10:00,86.1,71.6,30.29,SW,220,0.0,0.0,62,0.00,,,0.00,Wunderground v.1.15,2013-08-25 18:10:00,
2013-08-25 14:11:00,70.7,68.3,30.27,NE,52,0.0,0.0,92,0.00,,,0.00,Wunderground v.1.15,2013-08-25 18:11:00,
2013-08-25 14:12:00,70.6,68.2,30.27,NE,52,0.0,0.0,92,0.00,,,0.00,Wunderground v.1.15,2013-08-25 18:12:00,
2013-08-25 14:13:00,70.6,68.2,30.27,NE,52,0.0,0.0,92,0.00,,,0.00,Wunderground v.1.15,2013-08-25 18:13:00,
2013-08-25 14:14:00,86.2,72.1,30.29,SSW,204,0.0,1.0,63,0.00,,,0.00,Wunderground v.1.15,2013-08-25 18:14:00,
2013-08-25 14:15:00,86.3,72.2,30.29,SW,217,0.0,2.0,63,0.00,,,0.00,Wunderground v.1.15,2013-08-25 18:15:00,
2013-08-25 14:16:00,70.6,68.2,30.27,NE,52,0.0,0.0,92,0.00,,,0.00,Wunderground v.1.15,2013-08-25 18:16:00,
2013-08-25 14:17:00,70.6,68.2,30.27,NE,52,0.0,0.0,92,0.00,,,0.00,Wunderground v.1.15,2013-08-25 18:17:00,
2013-08-25 14:18:00,70.6,68.2,30.27,NE,52,0.0,0.0,92,0.00,,,0.00,Wunderground v.1.15,2013-08-25 18:18:00,
2013-08-25 14:19:00,86.6,73.0,30.28,SSW,196,1.0,4.0,64,0.00,,,0.00,Wunderground v.1.15,2013-08-25 18:19:00,
2013-08-25 14:20:00,70.6,68.2,30.27,NE,52,0.0,0.0,92,0.00,,,0.00,Wunderground v.1.15,2013-08-25 18:20:00,
2013-08-25 14:21:00,86.4,71.4,30.29,SSW,196,1.0,4.0,61,0.00,,,0.00,Wunderground v.1.15,2013-08-25 18:21:00,
2013-08-25 14:22:00,70.5,68.1,30.27,NE,52,0.0,0.0,92,0.00,,,0.00,Wunderground v.1.15,2013-08-25 18:22:00,
2013-08-25 14:23:00,86.3,70.3,30.28,SSW,196,1.0,4.0,59,0.00,,,0.00,Wunderground v.1.15,2013-08-25 18:23:00,
2013-08-25 14:24:00,70.5,68.1,30.27,NE,52,0.0,0.0,92,0.00,,,0.00,Wunderground v.1.15,2013-08-25 18:24:00,
2013-08-25 14:25:00,86.4,70.9,30.28,SSW,198,1.0,4.0,60,0.00,,,0.00,Wunderground v.1.15,2013-08-25 18:25:00,
2013-08-25 14:26:00,70.4,68.0,30.27,NE,52,0.0,0.0,92,0.00,,,0.00,Wunderground v.1.15,2013-08-25 18:26:00,
2013-08-25 14:27:00,86.5,71.5,30.28,SW,217,1.0,1.0,61,0.00,,,0.00,Wunderground v.1.15,2013-08-25 18:27:00,
2013-08-25 14:28:00,70.4,68.0,30.27,NE,52,0.0,0.0,92,0.00,,,0.00,Wunderground v.1.15,2013-08-25 18:28:00,
2013-08-25 14:29:00,86.6,72.5,30.28,WSW,252,1.0,1.0,63,0.00,,,0.00,Wunderground v.1.15,2013-08-25 18:29:00,
2013-08-25 14:30:00,70.3,67.9,30.27,NE,52,0.0,0.0,92,0.00,,,0.00,Wunderground v.1.15,2013-08-25 18:30:00,
2013-08-25 14:31:00,86.8,72.7,30.28,WNW,303,1.0,1.0,63,0.00,,,0.00,Wunderground v.1.15,2013-08-25 18:31:00,
2013-08-25 14:32:00,86.9,72.8,30.28,WNW,303,1.0,1.0,63,0.00,,,0.00,Wunderground v.1.15,2013-08-25 18:32:00,
2013-08-25 14:33:00,70.3,67.9,30.27,NE,52,0.0,0.0,92,0.00,,,0.00,Wunderground v.1.15,2013-08-25 18:33:00,
2013-08-25 14:35:00,87.1,73.9,30.28,NW,309,1.0,1.0,65,0.00,,,0.00,Wunderground v.1.15,2013-08-25 18:35:00,
2013-08-25 14:36:00,70.3,67.9,30.27,NE,52,0.0,0.0,92,0.00,,,0.00,Wunderground v.1.15,2013-08-25 18:36:00,
2013-08-25 14:37:00,70.3,67.9,30.27,NE,52,0.0,0.0,92,0.00,,,0.00,Wunderground v.1.15,2013-08-25 18:37:00,
2013-08-25 14:38:00,87.5,72.4,30.28,WSW,248,1.0,1.0,61,0.00,,,0.00,Wunderground v.1.15,2013-08-25 18:38:00,
2013-08-25 14:39:00,70.3,67.9,30.27,NE,52,0.0,0.0,92,0.00,,,0.00,Wunderground v.1.15,2013-08-25 18:39:00,
2013-08-25 14:40:00,87.6,72.0,30.28,WNW,288,1.0,1.0,60,0.00,,,0.00,Wunderground v.1.15,2013-08-25 18:40:00,
2013-08-25 14:41:00,87.6,72.5,30.28,WNW,288,0.0,1.0,61,0.00,,,0.00,Wunderground v.1.15,2013-08-25 18:41:00,
2013-08-25 14:42:00,70.2,68.1,30.27,NE,52,0.0,0.0,93,0.00,,,0.00,Wunderground v.1.15,2013-08-25 18:42:00,
2013-08-25 14:43:00,87.5,72.9,30.28,SSW,201,0.0,1.0,62,0.00,,,0.00,Wunderground v.1.15,2013-08-25 18:43:00,
2013-08-25 14:44:00,70.2,68.1,30.27,NE,52,0.0,0.0,93,0.00,,,0.00,Wunderground v.1.15,2013-08-25 18:44:00,
2013-08-25 14:45:00,87.1,73.0,30.28,SSW,202,0.0,1.0,63,0.00,,,0.00,Wunderground v.1.15,2013-08-25 18:45:00,
2013-08-25 14:47:00,86.9,72.8,30.28,South,172,0.0,0.0,63,0.00,,,0.00,Wunderground v.1.15,2013-08-25 18:47:00,
2013-08-25 14:48:00,70.2,68.1,30.27,NE,52,0.0,0.0,93,0.00,,,0.00,Wunderground v.1.15,2013-08-25 18:48:00,
2013-08-25 14:50:00,86.9,71.3,30.28,West,277,0.0,0.0,60,0.00,,,0.00,Wunderground v.1.15,2013-08-25 18:50:00,
2013-08-25 14:51:00,86.9,71.8,30.28,West,277,0.0,0.0,61,0.00,,,0.00,Wunderground v.1.15,2013-08-25 18:51:00,
2013-08-25 14:52:00,87.0,71.9,30.28,SSW,203,0.0,1.0,61,0.00,,,0.00,Wunderground v.1.15,2013-08-25 18:52:00,
2013-08-25 14:54:00,87.2,71.6,30.28,SSW,203,0.0,1.0,60,0.00,,,0.00,Wunderground v.1.15,2013-08-25 18:54:00,
2013-08-25 14:56:00,70.1,68.0,30.27,NE,52,0.0,0.0,93,0.00,,,0.00,Wunderground v.1.15,2013-08-25 18:56:00,
2013-08-25 14:58:00,87.4,72.8,30.27,NNW,345,0.0,0.0,62,0.00,,,0.00,Wunderground v.1.15,2013-08-25 18:58:00,
2013-08-25 14:59:00,87.3,71.7,30.27,NNW,345,0.0,0.0,60,0.00,,,0.00,Wunderground v.1.15,2013-08-25 18:59:00,
2013-08-25 15:00:00,87.3,72.2,30.27,NNW,344,0.0,0.0,61,0.00,,,0.00,Wunderground v.1.15,2013-08-25 19:00:00,
2013-08-25 15:04:00,87.6,72.5,30.27,WNW,302,0.0,1.0,61,0.00,,,0.00,Wunderground v.1.15,2013-08-25 19:04:00,
2013-08-25 15:06:00,87.5,71.4,30.27,WNW,302,0.0,1.0,59,0.00,,,0.00,Wunderground v.1.15,2013-08-25 19:06:00,
2013-08-25 15:08:00,87.7,72.1,30.27,WNW,302,0.0,0.0,60,0.00,,,0.00,Wunderground v.1.15,2013-08-25 19:08:00,
2013-08-25 15:09:00,87.9,71.8,30.27,WNW,302,0.0,0.0,59,0.00,,,0.00,Wunderground v.1.15,2013-08-25 19:09:00,
2013-08-25 15:11:00,88.3,70.6,30.27,WNW,301,0.0,0.0,56,0.00,,,0.00,Wunderground v.1.15,2013-08-25 19:11:00,
2013-08-25 15:12:00,88.4,70.7,30.27,WNW,301,0.0,0.0,56,0.00,,,0.00,Wunderground v.1.15,2013-08-25 19:12:00,
2013-08-25 15:14:00,88.7,71.0,30.27,West,278,0.0,2.0,56,0.00,,,0.00,Wunderground v.1.15,2013-08-25 19:14:00,
2013-08-25 15:17:00,88.5,71.3,30.27,NNW,333,0.0,0.0,57,0.00,,,0.00,Wunderground v.1.15,2013-08-25 19:17:00,
2013-08-25 15:18:00,88.4,70.2,30.27,NNW,327,1.0,1.0,55,0.00,,,0.00,Wunderground v.1.15,2013-08-25 19:18:00,
2013-08-25 15:20:00,88.5,69.7,30.27,NNW,327,1.0,1.0,54,0.00,,,0.00,Wunderground v.1.15,2013-08-25 19:20:00,
2013-08-25 15:22:00,88.4,70.7,30.26,South,184,1.0,1.0,56,0.00,,,0.00,Wunderground v.1.15,2013-08-25 19:22:00,
2013-08-25 15:24:00,88.2,71.0,30.26,South,184,1.0,1.0,57,0.00,,,0.00,Wunderground v.1.15,2013-08-25 19:24:00,
2013-08-25 15:26:00,87.9,70.8,30.26,SSW,200,0.0,2.0,57,0.00,,,0.00,Wunderground v.1.15,2013-08-25 19:26:00,
2013-08-25 15:28:00,87.5,70.9,30.26,NNE,13,0.0,1.0,58,0.00,,,0.00,Wunderground v.1.15,2013-08-25 19:28:00,
2013-08-25 15:29:00,87.5,70.9,30.26,NNE,17,0.0,2.0,58,0.00,,,0.00,Wunderground v.1.15,2013-08-25 19:29:00,
2013-08-25 15:31:00,87.4,70.8,30.26,NNE,17,0.0,2.0,58,0.00,,,0.00,Wunderground v.1.15,2013-08-25 19:31:00,
2013-08-25 15:32:00,87.3,71.7,30.26,NNE,17,0.0,2.0,60,0.00,,,0.00,Wunderground v.1.15,2013-08-25 19:32:00,
2013-08-25 15:35:00,87.2,71.6,30.26,NNE,17,0.0,2.0,60,0.00,,,0.00,Wunderground v.1.15,2013-08-25 19:35:00,
2013-08-25 15:36:00,87.3,71.7,30.26,NNE,17,0.0,2.0,60,0.00,,,0.00,Wunderground v.1.15,2013-08-25 19:36:00,
2013-08-25 15:37:00,87.3,71.7,30.26,NNE,17,0.0,0.0,60,0.00,,,0.00,Wunderground v.1.15,2013-08-25 19:37:00,
2013-08-25 15:39:00,87.5,72.4,30.26,NNE,17,0.0,0.0,61,0.00,,,0.00,Wunderground v.1.15,2013-08-25 19:39:00,
2013-08-25 15:41:00,87.4,71.3,30.26,NNE,17,0.0,0.0,59,0.00,,,0.00,Wunderground v.1.15,2013-08-25 19:41:00,
2013-08-25 15:45:00,87.3,70.7,30.26,NNE,17,0.0,0.0,58,0.00,,,0.00,Wunderground v.1.15,2013-08-25 19:45:00,
2013-08-25 15:46:00,87.3,70.2,30.26,NNE,17,0.0,0.0,57,0.00,,,0.00,Wunderground v.1.15,2013-08-25 19:46:00,
2013-08-25 15:47:00,87.4,70.8,30.26,NNE,17,0.0,0.0,58,0.00,,,0.00,Wunderground v.1.15,2013-08-25 19:47:00,
2013-08-25 15:48:00,87.5,71.4,30.26,NNE,17,0.0,0.0,59,0.00,,,0.00,Wunderground v.1.15,2013-08-25 19:48:00,
2013-08-25 15:51:00,87.9,71.8,30.26,NNE,17,0.0,0.0,59,0.00,,,0.00,Wunderground v.1.15,2013-08-25 19:51:00,
2013-08-25 15:53:00,88.2,72.6,30.26,NE,53,0.0,0.0,60,0.00,,,0.00,Wunderground v.1.15,2013-08-25 19:53:00,
2013-08-25 15:57:00,88.6,71.4,30.26,East,80,0.0,0.0,57,0.00,,,0.00,Wunderground v.1.15,2013-08-25 19:57:00,
2013-08-25 15:58:00,88.6,71.4,30.25,East,80,0.0,0.0,57,0.00,,,0.00,Wunderground v.1.15,2013-08-25 19:58:00,
2013-08-25 16:00:00,88.6,72.4,30.25,ENE,78,0.0,0.0,59,0.00,,,0.00,Wunderground v.1.15,2013-08-25 20:00:00,
2013-08-25 16:01:00,88.6,71.9,30.25,NNE,24,1.0,1.0,58,0.00,,,0.00,Wunderground v.1.15,2013-08-25 20:01:00,
2013-08-25 16:04:00,88.3,72.2,30.26,North,5,1.0,2.0,59,0.00,,,0.00,Wunderground v.1.15,2013-08-25 20:04:00,
2013-08-25 16:06:00,88.1,72.0,30.25,NNW,331,1.0,2.0,59,0.00,,,0.00,Wunderground v.1.15,2013-08-25 20:06:00,
2013-08-25 16:07:00,88.1,72.0,30.25,NNW,331,1.0,1.0,59,0.00,,,0.00,Wunderground v.1.15,2013-08-25 20:07:00,
2013-08-25 16:09:00,88.0,72.4,30.25,NE,53,1.0,1.0,60,0.00,,,0.00,Wunderground v.1.15,2013-08-25 20:09:00,
2013-08-25 16:12:00,87.8,72.2,30.25,NE,53,0.0,1.0,60,0.00,,,0.00,Wunderground v.1.15,2013-08-25 20:12:00,
2013-08-25 16:13:00,87.6,72.0,30.25,NE,53,1.0,1.0,60,0.00,,,0.00,Wunderground v.1.15,2013-08-25 20:13:00,
2013-08-25 16:15:00,87.3,72.2,30.25,NE,52,0.0,1.0,61,0.00,,,0.00,Wunderground v.1.15,2013-08-25 20:15:00,
2013-08-25 16:19:00,86.8,72.2,30.25,NE,52,0.0,0.0,62,0.00,,,0.00,Wunderground v.1.15,2013-08-25 20:19:00,
2013-08-25 16:21:00,86.7,72.6,30.25,NE,52,0.0,0.0,63,0.00,,,0.00,Wunderground v.1.15,2013-08-25 20:21:00,
2013-08-25 16:22:00,86.6,73.0,30.25,NE,52,0.0,0.0,64,0.00,,,0.00,Wunderground v.1.15,2013-08-25 20:22:00,
2013-08-25 16:23:00,86.6,73.4,30.25,NE,52,0.0,0.0,65,0.00,,,0.00,Wunderground v.1.15,2013-08-25 20:23:00,
2013-08-25 16:24:00,86.5,73.3,30.25,NE,52,0.0,0.0,65,0.00,,,0.00,Wunderground v.1.15,2013-08-25 20:24:00,
2013-08-25 16:28:00,86.4,72.3,30.25,NE,52,0.0,0.0,63,0.00,,,0.00,Wunderground v.1.15,2013-08-25 20:28:00,
2013-08-25 16:29:00,86.3,72.2,30.25,NE,52,0.0,0.0,63,0.00,,,0.00,Wunderground v.1.15,2013-08-25 20:29:00,
2013-08-25 16:30:00,86.3,72.7,30.25,NE,52,0.0,0.0,64,0.00,,,0.00,Wunderground v.1.15,2013-08-25 20:30:00,
2013-08-25 16:33:00,86.3,73.1,30.25,NE,52,0.0,1.0,65,0.00,,,0.00,Wunderground v.1.15,2013-08-25 20:33:00,
2013-08-25 16:34:00,86.3,72.7,30.25,NE,52,0.0,1.0,64,0.00,,,0.00,Wunderground v.1.15,2013-08-25 20:34:00,
2013-08-25 16:35:00,86.3,73.1,30.25,NE,52,0.0,1.0,65,0.00,,,0.00,Wunderground v.1.15,2013-08-25 20:35:00,
2013-08-25 16:39:00,86.4,72.3,30.25,NE,52,0.0,0.0,63,0.00,,,0.00,Wunderground v.1.15,2013-08-25 20:39:00,
2013-08-25 16:40:00,86.4,72.3,30.25,NE,52,0.0,0.0,63,0.00,,,0.00,Wunderground v.1.15,2013-08-25 20:40:00,
2013-08-25 16:43:00,86.4,72.8,30.25,NE,52,0.0,0.0,64,0.00,,,0.00,Wunderground v.1.15,2013-08-25 20:43:00,
2013-08-25 16:45:00,86.3,72.7,30.25,NE,52,0.0,0.0,64,0.00,,,0.00,Wunderground v.1.15,2013-08-25 20:45:00,
2013-08-25 16:48:00,86.1,72.5,30.25,NE,52,0.0,0.0,64,0.00,,,0.00,Wunderground v.1.15,2013-08-25 20:48:00,
2013-08-25 16:49:00,86.1,72.5,30.25,NE,52,0.0,0.0,64,0.00,,,0.00,Wunderground v.1.15,2013-08-25 20:49:00,
2013-08-25 16:50:00,86.1,73.0,30.25,NE,52,0.0,0.0,65,0.00,,,0.00,Wunderground v.1.15,2013-08-25 20:50:00,
2013-08-25 16:53:00,85.9,73.2,30.25,NE,52,0.0,0.0,66,0.00,,,0.00,Wunderground v.1.15,2013-08-25 20:53:00,
2013-08-25 16:55:00,85.8,74.0,30.25,NE,52,0.0,0.0,68,0.00,,,0.00,Wunderground v.1.15,2013-08-25 20:55:00,
2013-08-25 16:56:00,85.8,74.0,30.25,NE,52,0.0,0.0,68,0.00,,,0.00,Wunderground v.1.15,2013-08-25 20:56:00,
2013-08-25 16:57:00,85.7,73.9,30.25,NE,52,0.0,0.0,68,0.00,,,0.00,Wunderground v.1.15,2013-08-25 20:57:00,
2013-08-25 17:00:00,85.1,74.2,30.25,NE,52,0.0,0.0,70,0.00,,,0.00,Wunderground v.1.15,2013-08-25 21:00:00,
2013-08-25 17:03:00,84.6,74.2,30.25,NE,52,0.0,0.0,71,0.00,,,0.00,Wunderground v.1.15,2013-08-25 21:03:00,
2013-08-25 17:06:00,84.3,73.9,30.25,NE,52,0.0,0.0,71,0.00,,,0.00,Wunderground v.1.15,2013-08-25 21:06:00,
2013-08-25 17:07:00,84.2,73.8,30.25,NE,52,0.0,0.0,71,0.00,,,0.00,Wunderground v.1.15,2013-08-25 21:07:00,
2013-08-25 17:08:00,84.1,73.7,30.25,NE,52,0.0,0.0,71,0.00,,,0.00,Wunderground v.1.15,2013-08-25 21:08:00,
2013-08-25 17:11:00,84.0,73.6,30.25,NE,52,0.0,0.0,71,0.00,,,0.00,Wunderground v.1.15,2013-08-25 21:11:00,
2013-08-25 17:12:00,83.9,73.5,30.25,NE,52,0.0,0.0,71,0.00,,,0.00,Wunderground v.1.15,2013-08-25 21:12:00,
2013-08-25 17:14:00,83.7,73.3,30.25,NE,52,0.0,0.0,71,0.00,,,0.00,Wunderground v.1.15,2013-08-25 21:14:00,
2013-08-25 17:15:00,83.6,73.2,30.25,NE,52,0.0,0.0,71,0.00,,,0.00,Wunderground v.1.15,2013-08-25 21:15:00,
2013-08-25 17:17:00,83.4,73.0,30.24,NE,52,0.0,0.0,71,0.00,,,0.00,Wunderground v.1.15,2013-08-25 21:17:00,
2013-08-25 17:19:00,83.2,72.8,30.24,NE,52,0.0,0.0,71,0.00,,,0.00,Wunderground v.1.15,2013-08-25 21:19:00,
2013-08-25 17:20:00,83.1,72.7,30.24,NE,52,0.0,0.0,71,0.00,,,0.00,Wunderground v.1.15,2013-08-25 21:20:00,
2013-08-25 17:21:00,83.0,72.6,30.24,NE,52,0.0,0.0,71,0.00,,,0.00,Wunderground v.1.15,2013-08-25 21:21:00,
2013-08-25 17:22:00,82.9,72.5,30.24,NE,52,0.0,0.0,71,0.00,,,0.00,Wunderground v.1.15,2013-08-25 21:22:00,
2013-08-25 17:26:00,82.5,72.6,30.24,NE,52,0.0,0.0,72,0.00,,,0.00,Wunderground v.1.15,2013-08-25 21:26:00,
2013-08-25 17:27:00,82.4,72.5,30.24,NE,52,0.0,0.0,72,0.00,,,0.00,Wunderground v.1.15,2013-08-25 21:27:00,
2013-08-25 17:28:00,82.2,72.3,30.24,NE,52,0.0,0.0,72,0.00,,,0.00,Wunderground v.1.15,2013-08-25 21:28:00,
2013-08-25 17:29:00,82.0,72.1,30.24,NE,52,0.0,0.0,72,0.00,,,0.00,Wunderground v.1.15,2013-08-25 21:29:00,
2013-08-25 17:31:00,81.7,72.2,30.24,NE,52,0.0,0.0,73,0.00,,,0.00,Wunderground v.1.15,2013-08-25 21:31:00,
2013-08-25 17:32:00,81.6,72.1,30.24,NE,52,0.0,0.0,73,0.00,,,0.00,Wunderground v.1.15,2013-08-25 21:32:00,
2013-08-25 17:33:00,81.5,72.0,30.24,NE,52,0.0,0.0,73,0.00,,,0.00,Wunderground v.1.15,2013-08-25 21:33:00,
2013-08-25 17:34:00,81.5,72.0,30.24,NE,52,0.0,0.0,73,0.00,,,0.00,Wunderground v.1.15,2013-08-25 21:34:00,
2013-08-25 17:37:00,81.3,71.8,30.24,NE,52,0.0,0.0,73,0.00,,,0.00,Wunderground v.1.15,2013-08-25 21:37:00,
2013-08-25 17:39:00,81.2,71.7,30.24,NE,52,0.0,0.0,73,0.00,,,0.00,Wunderground v.1.15,2013-08-25 21:39:00,
2013-08-25 17:40:00,81.2,72.1,30.24,NE,52,0.0,0.0,74,0.00,,,0.00,Wunderground v.1.15,2013-08-25 21:40:00,
2013-08-25 17:41:00,81.2,71.7,30.24,NE,52,0.0,0.0,73,0.00,,,0.00,Wunderground v.1.15,2013-08-25 21:41:00,
2013-08-25 17:45:00,81.2,72.1,30.24,NE,52,0.0,0.0,74,0.00,,,0.00,Wunderground v.1.15,2013-08-25 21:45:00,
2013-08-25 17:47:00,81.2,72.5,30.24,NE,52,0.0,0.0,75,0.00,,,0.00,Wunderground v.1.15,2013-08-25 21:47:00,
2013-08-25 17:48:00,81.2,72.5,30.24,NE,52,0.0,0.0,75,0.00,,,0.00,Wunderground v.1.15,2013-08-25 21:48:00,
2013-08-25 17:50:00,81.1,72.0,30.24,NE,52,0.0,0.0,74,0.00,,,0.00,Wunderground v.1.15,2013-08-25 21:50:00,
2013-08-25 17:54:00,80.8,71.7,30.24,NE,52,0.0,0.0,74,0.00,,,0.00,Wunderground v.1.15,2013-08-25 21:54:00,
2013-08-25 17:56:00,80.7,71.6,30.24,NE,52,0.0,0.0,74,0.00,,,0.00,Wunderground v.1.15,2013-08-25 21:56:00,
2013-08-25 17:57:00,80.7,71.6,30.24,NE,52,0.0,0.0,74,0.00,,,0.00,Wunderground v.1.15,2013-08-25 21:57:00,
2013-08-25 18:00:00,80.5,71.8,30.24,NE,52,0.0,0.0,75,0.00,,,0.00,Wunderground v.1.15,2013-08-25 22:00:00,
2013-08-25 18:02:00,80.4,71.7,30.24,NE,52,0.0,0.0,75,0.00,,,0.00,Wunderground v.1.15,2013-08-25 22:02:00,
2013-08-25 18:03:00,80.4,72.1,30.24,NE,52,0.0,0.0,76,0.00,,,0.00,Wunderground v.1.15,2013-08-25 22:03:00,
2013-08-25 18:04:00,80.3,71.6,30.24,NE,52,0.0,0.0,75,0.00,,,0.00,Wunderground v.1.15,2013-08-25 22:04:00,
2013-08-25 18:06:00,80.3,72.0,30.24,NE,52,0.0,0.0,76,0.00,,,0.00,Wunderground v.1.15,2013-08-25 22:06:00,
2013-08-25 18:08:00,80.2,71.9,30.24,NE,52,0.0,0.0,76,0.00,,,0.00,Wunderground v.1.15,2013-08-25 22:08:00,
2013-08-25 18:10:00,80.2,71.9,30.24,NE,52,0.0,0.0,76,0.00,,,0.00,Wunderground v.1.15,2013-08-25 22:10:00,
2013-08-25 18:12:00,80.3,72.0,30.24,NE,52,0.0,0.0,76,0.00,,,0.00,Wunderground v.1.15,2013-08-25 22:12:00,
2013-08-25 18:13:00,80.3,71.6,30.24,NE,52,0.0,0.0,75,0.00,,,0.00,Wunderground v.1.15,2013-08-25 22:13:00,
2013-08-25 18:14:00,80.3,72.0,30.24,NE,52,0.0,0.0,76,0.00,,,0.00,Wunderground v.1.15,2013-08-25 22:14:00,
2013-08-25 18:16:00,80.4,72.1,30.24,NE,52,0.0,0.0,76,0.00,,,0.00,Wunderground v.1.15,2013-08-25 22:16:00,
2013-08-25 18:18:00,80.5,72.2,30.24,NE,52,0.0,0.0,76,0.00,,,0.00,Wunderground v.1.15,2013-08-25 22:18:00,
2013-08-25 18:21:00,80.6,72.3,30.24,NE,52,0.0,0.0,76,0.00,,,0.00,Wunderground v.1.15,2013-08-25 22:21:00,
2013-08-25 18:22:00,80.6,72.7,30.24,NE,52,0.0,0.0,77,0.00,,,0.00,Wunderground v.1.15,2013-08-25 22:22:00,
2013-08-25 18:26:00,80.7,72.8,30.24,NE,52,0.0,0.0,77,0.00,,,0.00,Wunderground v.1.15,2013-08-25 22:26:00,
2013-08-25 18:28:00,80.7,72.4,30.24,NE,52,0.0,0.0,76,0.00,,,0.00,Wunderground v.1.15,2013-08-25 22:28:00,
2013-08-25 18:29:00,80.7,72.4,30.24,NE,52,0.0,0.0,76,0.00,,,0.00,Wunderground v.1.15,2013-08-25 22:29:00,
2013-08-25 18:30:00,80.7,72.4,30.24,NE,52,0.0,0.0,76,0.00,,,0.00,Wunderground v.1.15,2013-08-25 22:30:00,
2013-08-25 18:32:00,80.7,72.4,30.24,NE,52,0.0,0.0,76,0.00,,,0.00,Wunderground v.1.15,2013-08-25 22:32:00,
2013-08-25 18:33:00,80.7,71.6,30.24,NE,52,0.0,0.0,74,0.00,,,0.00,Wunderground v.1.15,2013-08-25 22:33:00,
2013-08-25 18:36:00,80.9,72.2,30.24,NE,52,0.0,0.0,75,0.00,,,0.00,Wunderground v.1.15,2013-08-25 22:36:00,
2013-08-25 18:37:00,81.0,72.3,30.24,NE,52,0.0,0.0,75,0.00,,,0.00,Wunderground v.1.15,2013-08-25 22:37:00,
2013-08-25 18:39:00,81.1,72.0,30.24,NE,52,0.0,0.0,74,0.00,,,0.00,Wunderground v.1.15,2013-08-25 22:39:00,
2013-08-25 18:41:00,81.2,72.1,30.24,NE,52,0.0,0.0,74,0.00,,,0.00,Wunderground v.1.15,2013-08-25 22:41:00,
2013-08-25 18:42:00,81.3,72.2,30.24,NE,52,0.0,0.0,74,0.00,,,0.00,Wunderground v.1.15,2013-08-25 22:42:00,
2013-08-25 18:44:00,81.4,72.3,30.24,NE,52,0.0,0.0,74,0.00,,,0.00,Wunderground v.1.15,2013-08-25 22:44:00,
2013-08-25 18:47:00,81.5,72.4,30.24,NE,52,0.0,0.0,74,0.00,,,0.00,Wunderground v.1.15,2013-08-25 22:47:00,
2013-08-25 18:48:00,81.5,72.4,30.24,NE,52,0.0,0.0,74,0.00,,,0.00,Wunderground v.1.15,2013-08-25 22:48:00,
2013-08-25 18:49:00,81.5,72.4,30.24,NE,52,0.0,0.0,74,0.00,,,0.00,Wunderground v.1.15,2013-08-25 22:49:00,
2013-08-25 18:53:00,81.5,72.0,30.24,NE,52,0.0,0.0,73,0.00,,,0.00,Wunderground v.1.15,2013-08-25 22:53:00,
2013-08-25 18:54:00,81.6,72.1,30.24,NE,52,0.0,0.0,73,0.00,,,0.00,Wunderground v.1.15,2013-08-25 22:54:00,
2013-08-25 18:55:00,81.5,72.0,30.24,NE,52,0.0,0.0,73,0.00,,,0.00,Wunderground v.1.15,2013-08-25 22:55:00,
2013-08-25 18:56:00,81.6,72.1,30.24,NE,52,0.0,0.0,73,0.00,,,0.00,Wunderground v.1.15,2013-08-25 22:56:00,
2013-08-25 19:00:00,81.6,72.1,30.24,NE,52,0.0,0.0,73,0.00,,,0.00,Wunderground v.1.15,2013-08-25 23:00:00,
2013-08-25 19:02:00,81.6,72.1,30.24,NE,52,0.0,0.0,73,0.00,,,0.00,Wunderground v.1.15,2013-08-25 23:02:00,
2013-08-25 19:03:00,81.6,72.1,30.24,NE,52,0.0,0.0,73,0.00,,,0.00,Wunderground v.1.15,2013-08-25 23:03:00,
2013-08-25 19:04:00,81.6,72.1,30.24,NE,52,0.0,0.0,73,0.00,,,0.00,Wunderground v.1.15,2013-08-25 23:04:00,
2013-08-25 19:06:00,81.6,71.7,30.24,NE,52,0.0,0.0,72,0.00,,,0.00,Wunderground v.1.15,2013-08-25 23:06:00,
2013-08-25 19:08:00,81.5,71.6,30.24,NE,52,0.0,0.0,72,0.00,,,0.00,Wunderground v.1.15,2013-08-25 23:08:00,
2013-08-25 19:10:00,81.5,71.6,30.24,NE,52,0.0,0.0,72,0.00,,,0.00,Wunderground v.1.15,2013-08-25 23:10:00,
2013-08-25 19:11:00,81.5,71.6,30.24,NE,52,0.0,0.0,72,0.00,,,0.00,Wunderground v.1.15,2013-08-25 23:11:00,
2013-08-25 19:13:00,81.5,71.6,30.24,NE,52,0.0,0.0,72,0.00,,,0.00,Wunderground v.1.15,2013-08-25 23:13:00,
2013-08-25 19:16:00,81.4,71.5,30.24,NE,52,0.0,0.0,72,0.00,,,0.00,Wunderground v.1.15,2013-08-25 23:16:00,
2013-08-25 19:18:00,81.3,71.4,30.24,NE,52,0.0,0.0,72,0.00,,,0.00,Wunderground v.1.15,2013-08-25 23:18:00,
2013-08-25 19:19:00,81.3,71.4,30.24,NE,52,0.0,0.0,72,0.00,,,0.00,Wunderground v.1.15,2013-08-25 23:19:00,
2013-08-25 19:22:00,81.3,71.4,30.24,NE,52,0.0,0.0,72,0.00,,,0.00,Wunderground v.1.15,2013-08-25 23:22:00,
2013-08-25 19:25:00,81.2,71.3,30.24,NE,52,0.0,0.0,72,0.00,,,0.00,Wunderground v.1.15,2013-08-25 23:25:00,
2013-08-25 19:27:00,81.1,71.2,30.24,NE,52,0.0,0.0,72,0.00,,,0.00,Wunderground v.1.15,2013-08-25 23:27:00,
2013-08-25 19:29:00,81.1,71.2,30.24,NE,52,0.0,0.0,72,0.00,,,0.00,Wunderground v.1.15,2013-08-25 23:29:00,
2013-08-25 19:30:00,81.0,71.1,30.23,NE,52,0.0,0.0,72,0.00,,,0.00,Wunderground v.1.15,2013-08-25 23:30:00,
2013-08-25 19:33:00,80.9,71.0,30.24,NE,52,0.0,0.0,72,0.00,,,0.00,Wunderground v.1.15,2013-08-25 23:33:00,
2013-08-25 19:35:00,80.8,70.9,30.24,NE,52,0.0,0.0,72,0.00,,,0.00,Wunderground v.1.15,2013-08-25 23:35:00,
2013-08-25 19:36:00,80.8,70.9,30.24,NE,52,0.0,0.0,72,0.00,,,0.00,Wunderground v.1.15,2013-08-25 23:36:00,
2013-08-25 19:39:00,80.7,70.8,30.24,NE,52,0.0,0.0,72,0.00,,,0.00,Wunderground v.1.15,2013-08-25 23:39:00,
2013-08-25 19:43:00,80.6,70.7,30.24,NE,52,0.0,0.0,72,0.00,,,0.00,Wunderground v.1.15,2013-08-25 23:43:00,
2013-08-25 19:44:00,80.5,70.6,30.24,NE,52,0.0,0.0,72,0.00,,,0.00,Wunderground v.1.15,2013-08-25 23:44:00,
2013-08-25 19:45:00,80.4,70.5,30.24,NE,52,0.0,0.0,72,0.00,,,0.00,Wunderground v.1.15,2013-08-25 23:45:00,
2013-08-25 19:47:00,80.3,70.9,30.24,NE,52,0.0,0.0,73,0.00,,,0.00,Wunderground v.1.15,2013-08-25 23:47:00,
2013-08-25 19:50:00,80.3,70.9,30.24,NE,52,0.0,0.0,73,0.00,,,0.00,Wunderground v.1.15,2013-08-25 23:50:00,
2013-08-25 19:51:00,80.2,70.8,30.24,NE,52,0.0,0.0,73,0.00,,,0.00,Wunderground v.1.15,2013-08-25 23:51:00,
2013-08-25 19:52:00,80.1,70.7,30.24,NE,52,0.0,0.0,73,0.00,,,0.00,Wunderground v.1.15,2013-08-25 23:52:00,
2013-08-25 19:53:00,80.1,70.7,30.24,NE,52,0.0,0.0,73,0.00,,,0.00,Wunderground v.1.15,2013-08-25 23:53:00,
2013-08-25 19:57:00,79.8,70.4,30.24,NE,52,0.0,0.0,73,0.00,,,0.00,Wunderground v.1.15,2013-08-25 23:57:00,
2013-08-25 19:58:00,79.8,70.4,30.24,NE,52,0.0,0.0,73,0.00,,,0.00,Wunderground v.1.15,2013-08-25 23:58:00,
2013-08-25 19:59:00,79.7,70.3,30.24,NE,52,0.0,0.0,73,0.00,,,0.00,Wunderground v.1.15,2013-08-25 23:59:00,
2013-08-25 20:02:00,79.5,70.5,30.24,NE,52,0.0,0.0,74,0.00,,,0.00,Wunderground v.1.15,2013-08-26 00:02:00,
2013-08-25 20:05:00,79.3,70.3,30.24,NE,52,0.0,0.0,74,0.00,,,0.00,Wunderground v.1.15,2013-08-26 00:05:00,
2013-08-25 20:07:00,79.2,70.2,30.24,NE,52,0.0,0.0,74,0.00,,,0.00,Wunderground v.1.15,2013-08-26 00:07:00,
2013-08-25 20:08:00,79.1,70.1,30.24,NE,52,0.0,0.0,74,0.00,,,0.00,Wunderground v.1.15,2013-08-26 00:08:00,
2013-08-25 20:09:00,79.1,70.1,30.24,NE,52,0.0,0.0,74,0.00,,,0.00,Wunderground v.1.15,2013-08-26 00:09:00,
2013-08-25 20:11:00,79.0,70.0,30.24,NE,52,0.0,0.0,74,0.00,,,0.00,Wunderground v.1.15,2013-08-26 00:11:00,
2013-08-25 20:14:00,78.9,69.9,30.24,NE,52,0.0,0.0,74,0.00,,,0.00,Wunderground v.1.15,2013-08-26 00:14:00,
2013-08-25 20:17:00,78.8,69.8,30.24,NE,52,0.0,0.0,74,0.00,,,0.00,Wunderground v.1.15,2013-08-26 00:17:00,
2013-08-25 20:18:00,78.7,69.7,30.24,NE,52,0.0,0.0,74,0.00,,,0.00,Wunderground v.1.15,2013-08-26 00:18:00,
2013-08-25 20:20:00,78.7,69.7,30.24,NE,52,0.0,0.0,74,0.00,,,0.00,Wunderground v.1.15,2013-08-26 00:20:00,
2013-08-25 20:22:00,78.6,69.6,30.24,NE,52,0.0,0.0,74,0.00,,,0.00,Wunderground v.1.15,2013-08-26 00:22:00,
2013-08-25 20:23:00,78.5,69.5,30.24,NE,52,0.0,0.0,74,0.00,,,0.00,Wunderground v.1.15,2013-08-26 00:23:00,
2013-08-25 20:25:00,78.5,69.9,30.24,NE,52,0.0,0.0,75,0.00,,,0.00,Wunderground v.1.15,2013-08-26 00:25:00,
2013-08-25 20:29:00,78.3,69.7,30.24,NE,52,0.0,0.0,75,0.00,,,0.00,Wunderground v.1.15,2013-08-26 00:29:00,
2013-08-25 20:30:00,78.3,69.7,30.24,NE,52,0.0,0.0,75,0.00,,,0.00,Wunderground v.1.15,2013-08-26 00:30:00,
2013-08-25 20:31:00,78.2,69.6,30.24,NE,52,0.0,0.0,75,0.00,,,0.00,Wunderground v.1.15,2013-08-26 00:31:00,
2013-08-25 20:34:00,78.1,69.5,30.24,NE,52,0.0,0.0,75,0.00,,,0.00,Wunderground v.1.15,2013-08-26 00:34:00,
2013-08-25 20:35:00,78.1,69.5,30.24,NE,52,0.0,0.0,75,0.00,,,0.00,Wunderground v.1.15,2013-08-26 00:35:00,
2013-08-25 20:36:00,78.1,69.5,30.24,NE,52,0.0,0.0,75,0.00,,,0.00,Wunderground v.1.15,2013-08-26 00:36:00,
2013-08-25 20:38:00,78.0,69.4,30.24,NE,52,0.0,0.0,75,0.00,,,0.00,Wunderground v.1.15,2013-08-26 00:38:00,
2013-08-25 20:40:00,77.9,69.7,30.24,NE,52,0.0,0.0,76,0.00,,,0.00,Wunderground v.1.15,2013-08-26 00:40:00,
2013-08-25 20:41:00,77.8,69.6,30.24,NE,52,0.0,0.0,76,0.00,,,0.00,Wunderground v.1.15,2013-08-26 00:41:00,
2013-08-25 20:44:00,77.7,69.5,30.24,NE,52,0.0,0.0,76,0.00,,,0.00,Wunderground v.1.15,2013-08-26 00:44:00,
2013-08-25 20:45:00,77.6,69.4,30.24,NE,52,0.0,0.0,76,0.00,,,0.00,Wunderground v.1.15,2013-08-26 00:45:00,
2013-08-25 20:46:00,77.6,69.8,30.24,NE,52,0.0,0.0,77,0.00,,,0.00,Wunderground v.1.15,2013-08-26 00:46:00,
2013-08-25 20:48:00,77.4,69.6,30.24,NE,52,0.0,0.0,77,0.00,,,0.00,Wunderground v.1.15,2013-08-26 00:48:00,
2013-08-25 20:50:00,77.2,69.4,30.24,NE,52,0.0,0.0,77,0.00,,,0.00,Wunderground v.1.15,2013-08-26 00:50:00,
2013-08-25 20:51:00,77.1,69.3,30.24,NE,52,0.0,0.0,77,0.00,,,0.00,Wunderground v.1.15,2013-08-26 00:51:00,
2013-08-25 20:53:00,77.0,69.2,30.24,NE,52,0.0,0.0,77,0.00,,,0.00,Wunderground v.1.15,2013-08-26 00:53:00,
2013-08-25 20:55:00,76.9,69.5,30.24,NE,52,0.0,0.0,78,0.00,,,0.00,Wunderground v.1.15,2013-08-26 00:55:00,
2013-08-25 20:57:00,76.8,69.4,30.24,NE,52,0.0,0.0,78,0.00,,,0.00,Wunderground v.1.15,2013-08-26 00:57:00,
2013-08-25 21:01:00,76.6,69.6,30.24,NE,52,0.0,0.0,79,0.00,,,0.00,Wunderground v.1.15,2013-08-26 01:01:00,
2013-08-25 21:04:00,76.5,69.5,30.24,NE,52,0.0,0.0,79,0.00,,,0.00,Wunderground v.1.15,2013-08-26 01:04:00,
2013-08-25 21:06:00,76.5,69.5,30.24,NE,52,0.0,0.0,79,0.00,,,0.00,Wunderground v.1.15,2013-08-26 01:06:00,
2013-08-25 21:07:00,76.4,69.8,30.24,NE,52,0.0,0.0,80,0.00,,,0.00,Wunderground v.1.15,2013-08-26 01:07:00,
2013-08-25 21:10:00,76.3,69.7,30.24,NE,52,0.0,0.0,80,0.00,,,0.00,Wunderground v.1.15,2013-08-26 01:10:00,
2013-08-25 21:11:00,76.3,69.7,30.25,NE,52,0.0,0.0,80,0.00,,,0.00,Wunderground v.1.15,2013-08-26 01:11:00,
2013-08-25 21:13:00,76.2,69.6,30.25,NE,52,0.0,0.0,80,0.00,,,0.00,Wunderground v.1.15,2013-08-26 01:13:00,
2013-08-25 21:15:00,76.1,69.8,30.25,NE,52,0.0,0.0,81,0.00,,,0.00,Wunderground v.1.15,2013-08-26 01:15:00,
2013-08-25 21:17:00,76.1,69.8,30.25,NE,52,0.0,0.0,81,0.00,,,0.00,Wunderground v.1.15,2013-08-26 01:17:00,
2013-08-25 21:18:00,76.0,69.7,30.25,NE,52,0.0,0.0,81,0.00,,,0.00,Wunderground v.1.15,2013-08-26 01:18:00,
2013-08-25 21:20:00,76.0,69.7,30.25,NE,52,0.0,0.0,81,0.00,,,0.00,Wunderground v.1.15,2013-08-26 01:20:00,
2013-08-25 21:22:00,75.9,69.6,30.25,NE,52,0.0,0.0,81,0.00,,,0.00,Wunderground v.1.15,2013-08-26 01:22:00,
2013-08-25 21:26:00,75.8,69.6,30.25,NE,52,0.0,0.0,81,0.00,,,0.00,Wunderground v.1.15,2013-08-26 01:26:00,
2013-08-25 21:28:00,75.8,69.9,30.25,NE,52,0.0,0.0,82,0.00,,,0.00,Wunderground v.1.15,2013-08-26 01:28:00,
2013-08-25 21:29:00,75.8,69.9,30.25,NE,52,0.0,0.0,82,0.00,,,0.00,Wunderground v.1.15,2013-08-26 01:29:00,
2013-08-25 21:30:00,75.7,69.8,30.25,NE,52,0.0,0.0,82,0.00,,,0.00,Wunderground v.1.15,2013-08-26 01:30:00,
2013-08-25 21:33:00,75.6,69.7,30.25,NE,52,0.0,0.0,82,0.00,,,0.00,Wunderground v.1.15,2013-08-26 01:33:00,
2013-08-25 21:35:00,75.6,69.7,30.25,NE,52,0.0,0.0,82,0.00,,,0.00,Wunderground v.1.15,2013-08-26 01:35:00,
2013-08-25 21:36:00,75.5,70.0,30.25,NE,52,0.0,0.0,83,0.00,,,0.00,Wunderground v.1.15,2013-08-26 01:36:00,
2013-08-25 21:39:00,75.4,69.9,30.25,NE,52,0.0,0.0,83,0.00,,,0.00,Wunderground v.1.15,2013-08-26 01:39:00,
2013-08-25 21:40:00,75.4,69.9,30.25,NE,52,0.0,0.0,83,0.00,,,0.00,Wunderground v.1.15,2013-08-26 01:40:00,
2013-08-25 21:41:00,75.4,69.9,30.25,NE,52,0.0,0.0,83,0.00,,,0.00,Wunderground v.1.15,2013-08-26 01:41:00,
2013-08-25 21:44:00,75.3,69.8,30.25,NE,52,0.0,0.0,83,0.00,,,0.00,Wunderground v.1.15,2013-08-26 01:44:00,
2013-08-25 21:46:00,75.2,69.7,30.26,NE,52,0.0,0.0,83,0.00,,,0.00,Wunderground v.1.15,2013-08-26 01:46:00,
2013-08-25 21:49:00,75.1,69.6,30.25,NE,52,0.0,0.0,83,0.00,,,0.00,Wunderground v.1.15,2013-08-26 01:49:00,
2013-08-25 21:53:00,75.1,69.9,30.25,NE,52,0.0,0.0,84,0.00,,,0.00,Wunderground v.1.15,2013-08-26 01:53:00,
2013-08-25 21:55:00,75.0,69.8,30.26,NE,52,0.0,0.0,84,0.00,,,0.00,Wunderground v.1.15,2013-08-26 01:55:00,
2013-08-25 21:56:00,75.0,69.8,30.26,NE,52,0.0,0.0,84,0.00,,,0.00,Wunderground v.1.15,2013-08-26 01:56:00,
2013-08-25 21:58:00,74.9,69.7,30.26,NE,52,0.0,0.0,84,0.00,,,0.00,Wunderground v.1.15,2013-08-26 01:58:00,
2013-08-25 22:00:00,74.9,69.7,30.26,NE,52,0.0,0.0,84,0.00,,,0.00,Wunderground v.1.15,2013-08-26 02:00:00,
2013-08-25 22:02:00,74.8,69.6,30.26,NE,52,0.0,0.0,84,0.00,,,0.00,Wunderground v.1.15,2013-08-26 02:02:00,
2013-08-25 22:03:00,74.8,69.6,30.26,NE,52,0.0,0.0,84,0.00,,,0.00,Wunderground v.1.15,2013-08-26 02:03:00,
2013-08-25 22:05:00,74.7,69.5,30.26,NE,52,0.0,0.0,84,0.00,,,0.00,Wunderground v.1.15,2013-08-26 02:05:00,
2013-08-25 22:07:00,74.6,69.4,30.26,NE,52,0.0,0.0,84,0.00,,,0.00,Wunderground v.1.15,2013-08-26 02:07:00,
2013-08-25 22:10:00,74.6,69.8,30.26,NE,52,0.0,0.0,85,0.00,,,0.00,Wunderground v.1.15,2013-08-26 02:10:00,
2013-08-25 22:11:00,74.6,69.8,30.26,NE,52,0.0,0.0,85,0.00,,,0.00,Wunderground v.1.15,2013-08-26 02:11:00,
2013-08-25 22:12:00,74.5,69.7,30.26,NE,52,0.0,0.0,85,0.00,,,0.00,Wunderground v.1.15,2013-08-26 02:12:00,
2013-08-25 22:16:00,74.4,69.6,30.26,NE,52,0.0,0.0,85,0.00,,,0.00,Wunderground v.1.15,2013-08-26 02:16:00,
2013-08-25 22:17:00,74.4,69.6,30.26,NE,52,0.0,0.0,85,0.00,,,0.00,Wunderground v.1.15,2013-08-26 02:17:00,
2013-08-25 22:19:00,74.3,69.5,30.26,NE,52,0.0,0.0,85,0.00,,,0.00,Wunderground v.1.15,2013-08-26 02:19:00,
2013-08-25 22:23:00,74.2,69.7,30.26,NE,52,0.0,0.0,86,0.00,,,0.00,Wunderground v.1.15,2013-08-26 02:23:00,
2013-08-25 22:25:00,74.2,69.7,30.26,NE,52,0.0,0.0,86,0.00,,,0.00,Wunderground v.1.15,2013-08-26 02:25:00,
2013-08-25 22:26:00,74.1,69.6,30.26,NE,52,0.0,0.0,86,0.00,,,0.00,Wunderground v.1.15,2013-08-26 02:26:00,
2013-08-25 22:27:00,74.1,69.6,30.26,NE,52,0.0,0.0,86,0.00,,,0.00,Wunderground v.1.15,2013-08-26 02:27:00,
2013-08-25 22:31:00,74.0,69.5,30.26,NE,52,0.0,0.0,86,0.00,,,0.00,Wunderground v.1.15,2013-08-26 02:31:00,
2013-08-25 22:32:00,73.9,69.4,30.26,NE,52,0.0,0.0,86,0.00,,,0.00,Wunderground v.1.15,2013-08-26 02:32:00,
2013-08-25 22:33:00,73.9,69.4,30.26,NE,52,0.0,0.0,86,0.00,,,0.00,Wunderground v.1.15,2013-08-26 02:33:00,
2013-08-25 22:34:00,73.9,69.4,30.26,NE,52,0.0,0.0,86,0.00,,,0.00,Wunderground v.1.15,2013-08-26 02:34:00,
2013-08-25 22:36:00,73.8,69.3,30.26,NE,52,0.0,0.0,86,0.00,,,0.00,Wunderground v.1.15,2013-08-26 02:36:00,
2013-08-25 22:38:00,73.8,69.3,30.26,NE,52,0.0,0.0,86,0.00,,,0.00,Wunderground v.1.15,2013-08-26 02:38:00,
2013-08-25 22:40:00,73.7,69.6,30.26,NE,52,0.0,0.0,87,0.00,,,0.00,Wunderground v.1.15,2013-08-26 02:40:00,
2013-08-25 22:41:00,73.7,69.6,30.26,NE,52,0.0,0.0,87,0.00,,,0.00,Wunderground v.1.15,2013-08-26 02:41:00,
2013-08-25 22:42:00,73.7,69.6,30.26,NE,52,0.0,0.0,87,0.00,,,0.00,Wunderground v.1.15,2013-08-26 02:42:00,
2013-08-25 22:45:00,73.6,69.5,30.26,NE,52,0.0,0.0,87,0.00,,,0.00,Wunderground v.1.15,2013-08-26 02:45:00,
2013-08-25 22:46:00,73.6,69.5,30.26,NE,52,0.0,0.0,87,0.00,,,0.00,Wunderground v.1.15,2013-08-26 02:46:00,
2013-08-25 22:47:00,73.6,69.5,30.26,NE,52,0.0,0.0,87,0.00,,,0.00,Wunderground v.1.15,2013-08-26 02:47:00,
2013-08-25 22:48:00,73.5,69.4,30.26,NE,52,0.0,0.0,87,0.00,,,0.00,Wunderground v.1.15,2013-08-26 02:48:00,
2013-08-25 22:51:00,73.4,69.3,30.27,NE,52,0.0,0.0,87,0.00,,,0.00,Wunderground v.1.15,2013-08-26 02:51:00,
2013-08-25 22:52:00,73.4,69.3,30.27,NE,52,0.0,0.0,87,0.00,,,0.00,Wunderground v.1.15,2013-08-26 02:52:00,
2013-08-25 22:53:00,73.4,69.3,30.27,NE,52,0.0,0.0,87,0.00,,,0.00,Wunderground v.1.15,2013-08-26 02:53:00,
2013-08-25 22:54:00,73.4,69.3,30.27,NE,52,0.0,0.0,87,0.00,,,0.00,Wunderground v.1.15,2013-08-26 02:54:00,
2013-08-25 22:57:00,73.3,69.2,30.27,NE,52,0.0,0.0,87,0.00,,,0.00,Wunderground v.1.15,2013-08-26 02:57:00,
2013-08-25 22:58:00,73.3,69.2,30.27,NE,52,0.0,0.0,87,0.00,,,0.00,Wunderground v.1.15,2013-08-26 02:58:00,
2013-08-25 22:59:00,73.3,69.2,30.27,NE,52,0.0,0.0,87,0.00,,,0.00,Wunderground v.1.15,2013-08-26 02:59:00,
2013-08-25 23:02:00,73.3,69.2,30.27,NE,52,0.0,0.0,87,0.00,,,0.00,Wunderground v.1.15,2013-08-26 03:02:00,
2013-08-25 23:03:00,73.3,69.2,30.27,NE,52,0.0,0.0,87,0.00,,,0.00,Wunderground v.1.15,2013-08-26 03:03:00,
2013-08-25 23:05:00,73.2,69.1,30.27,NE,52,0.0,0.0,87,0.00,,,0.00,Wunderground v.1.15,2013-08-26 03:05:00,
2013-08-25 23:08:00,73.2,69.4,30.27,NE,52,0.0,0.0,88,0.00,,,0.00,Wunderground v.1.15,2013-08-26 03:08:00,
2013-08-25 23:10:00,73.2,69.4,30.27,NE,52,0.0,0.0,88,0.00,,,0.00,Wunderground v.1.15,2013-08-26 03:10:00,
2013-08-25 23:13:00,73.2,69.4,30.27,NE,52,0.0,0.0,88,0.00,,,0.00,Wunderground v.1.15,2013-08-26 03:13:00,
2013-08-25 23:16:00,73.1,69.3,30.28,NE,52,0.0,0.0,88,0.00,,,0.00,Wunderground v.1.15,2013-08-26 03:16:00,
2013-08-25 23:19:00,73.0,69.2,30.28,NE,52,0.0,0.0,88,0.00,,,0.00,Wunderground v.1.15,2013-08-26 03:19:00,
2013-08-25 23:20:00,73.0,69.2,30.28,NE,52,0.0,0.0,88,0.00,,,0.00,Wunderground v.1.15,2013-08-26 03:20:00,
2013-08-25 23:21:00,73.0,69.2,30.28,NE,52,0.0,0.0,88,0.00,,,0.00,Wunderground v.1.15,2013-08-26 03:21:00,
2013-08-25 23:23:00,72.9,69.1,30.28,NE,52,0.0,0.0,88,0.00,,,0.00,Wunderground v.1.15,2013-08-26 03:23:00,
2013-08-25 23:26:00,72.8,69.0,30.27,NE,52,0.0,0.0,88,0.00,,,0.00,Wunderground v.1.15,2013-08-26 03:26:00,
2013-08-25 23:27:00,72.8,69.0,30.27,NE,52,0.0,0.0,88,0.00,,,0.00,Wunderground v.1.15,2013-08-26 03:27:00,
2013-08-25 23:29:00,72.8,69.4,30.28,NE,52,0.0,0.0,89,0.00,,,0.00,Wunderground v.1.15,2013-08-26 03:29:00,
2013-08-25 23:30:00,72.8,69.4,30.28,NE,52,0.0,0.0,89,0.00,,,0.00,Wunderground v.1.15,2013-08-26 03:30:00,
2013-08-25 23:35:00,72.6,69.2,30.28,NE,52,0.0,0.0,89,0.00,,,0.00,Wunderground v.1.15,2013-08-26 03:35:00,
2013-08-25 23:36:00,72.6,69.2,30.28,NE,52,0.0,0.0,89,0.00,,,0.00,Wunderground v.1.15,2013-08-26 03:36:00,
2013-08-25 23:39:00,72.6,69.2,30.28,NE,52,0.0,0.0,89,0.00,,,0.00,Wunderground v.1.15,2013-08-26 03:39:00,
2013-08-25 23:41:00,72.5,69.1,30.27,NE,52,0.0,0.0,89,0.00,,,0.00,Wunderground v.1.15,2013-08-26 03:41:00,
2013-08-25 23:44:00,72.5,69.1,30.28,NE,52,0.0,0.0,89,0.00,,,0.00,Wunderground v.1.15,2013-08-26 03:44:00,
2013-08-25 23:45:00,72.4,69.0,30.28,NE,52,0.0,0.0,89,0.00,,,0.00,Wunderground v.1.15,2013-08-26 03:45:00,
2013-08-25 23:47:00,72.4,69.0,30.28,NE,52,0.0,0.0,89,0.00,,,0.00,Wunderground v.1.15,2013-08-26 03:47:00,
2013-08-25 23:49:00,72.3,68.9,30.28,NE,52,0.0,0.0,89,0.00,,,0.00,Wunderground v.1.15,2013-08-26 03:49:00,
2013-08-25 23:50:00,72.3,68.9,30.28,NE,52,0.0,0.0,89,0.00,,,0.00,Wunderground v.1.15,2013-08-26 03:50:00,
2013-08-25 23:52:00,72.2,68.8,30.28,NE,52,0.0,0.0,89,0.00,,,0.00,Wunderground v.1.15,2013-08-26 03:52:00,
2013-08-25 23:53:00,72.2,68.8,30.28,NE,52,0.0,0.0,89,0.00,,,0.00,Wunderground v.1.15,2013-08-26 03:53:00,
2013-08-25 23:55:00,72.2,69.1,30.28,NE,52,0.0,0.0,90,0.00,,,0.00,Wunderground v.1.15,2013-08-26 03:55:00,
2013-08-25 23:56:00,72.1,69.0,30.28,NE,52,0.0,0.0,90,0.00,,,0.00,Wunderground v.1.15,2013-08-26 03:56:00,
2013-08-25 23:57:00,72.1,69.0,30.28,NE,52,0.0,0.0,90,0.00,,,0.00,Wunderground v.1.15,2013-08-26 03:57:00,
2013-08-25 23:58:00,72.1,69.0,30.28,NE,52,0.0,0.0,90,0.00,,,0.00,Wunderground v.1.15,2013-08-26 03:58:00,